                ,  0.290,  0.390,  0.490,  0.590,  0.690,  0.790,  0.890,  0.990,  1.090,  1.190,  1.290,  1.390,  1.490,  1.590,  1.690,  1.790,  1.890,  1.990,  2.090,  2.190,  2.290,  2.390,  2.490,  2.590,  2.690,  2.790,  2.890,  2.990,  3.090,  3.190,  3.290,  3.390,  3.490,  3.590,  3.690,  3.790,  3.890,  3.990,  4.090,  4.190,  4.290,  4.390,  4.490,  4.590,  4.690,  4.790,  4.890,  4.990,  5.090,  5.190,  5.290,  5.390,  5.490,  5.590,  5.690,  5.790,  5.890,  5.990,  6.090,  6.190,  6.290,  6.390,  6.490,  6.590,  6.690,  6.790,  6.890,  6.990,  7.090,  7.190,  7.290,  7.390,  7.490,  7.590,  7.690,  7.790,  7.890,  7.990,  8.090,  8.190,  8.290,  8.390,  8.490,  8.590,  8.690,  8.790,  8.890,  8.990,  9.090,  9.190,  9.290,  9.390,  9.490,  9.590,  9.690,  9.790,  9.890,  9.990
2008/10/02 00:00,    5.5,  999.0,  999.0,  999.0,  999.0,  999.0,  999.0,  999.0,  999.0,  999.0,  999.0,  999.0,  999.0,  999.0,  999.0,  999.0,  999.0,  999.0,  999.0,    5.4,  999.0,  999.0,  999.0,    5.4,  999.0,  999.0,  999.0,  999.0,  999.0,  999.0,  999.0,  999.0,  999.0,  999.0,  999.0,  999.0,  999.0,  999.0,  999.0,  999.0,  999.0,  999.0,  999.0,  999.0,  999.0,    5.5,  999.0,  999.0,  999.0,  999.0,  999.0,  999.0,  999.0,  999.0,  999.0,  999.0,    5.5,  999.0,  999.0,  999.0,  999.0,  999.0,  999.0,  999.0,  999.0,  999.0,  999.0,  999.0,  999.0,  999.0,  999.0,  999.0,  999.0,  999.0,  999.0,  999.0,  999.0,  999.0,  999.0,  999.0,  999.0,  999.0,    5.4,  999.0,  999.0,  999.0,  999.0,  999.0,  999.0,  999.0,  999.0,  999.0,    5.5,    5.5,    5.5,    5.5,  999.0,    5.5
2008/10/02 00:10,    5.5,    5.5,  999.0,    5.5,    5.5,    5.5,  999.0,    5.5,    5.5,    5.5,  999.0,    5.5,    5.5,    5.5,  999.0,    5.5,  999.0,  999.0,  999.0,  999.0,  999.0,    5.5,    5.5,    5.5,  999.0,    5.5,    5.5,    5.5,  999.0,  999.0,  999.0,  999.0,    5.5,    5.5,    5.5,    5.5,  999.0,  999.0,    5.5,    5.5,    5.5,    5.5,    5.5,    5.5,    5.5,    5.5,  999.0,    5.5,  999.0,  999.0,    5.5,  999.0,  999.0,  999.0,  999.0,  999.0,  999.0,  999.0,  999.0,    5.5,    5.5,    5.5,    5.5,    5.5,  999.0,    5.5,  999.0,  999.0,  999.0,  999.0,  999.0,    5.5,    5.5,    5.5,    5.5,    5.5,    5.5,    5.5,    5.5,    5.5,    5.5,    5.5,  999.0,    5.5,    5.5,  999.0,  999.0,  999.0,  999.0,  999.0,  999.0,  999.0,  999.0,    5.5,  999.0,  999.0,    5.5,    5.5
2008/10/02 00:20,    5.5,    5.5,  999.0,    5.5,    5.5,    5.5,  999.0,    5.5,    5.5,    5.5,  999.0,    5.5,    5.5,    5.5,    5.5,    5.5,    5.5,    5.5,    5.5,    5.5,    5.5,    5.5,    5.5,    5.5,  999.0,    5.5,    5.5,    5.5,  999.0,    5.5,  999.0,    5.5,    5.5,    5.5,    5.5,    5.5,    5.5,    5.5,  999.0,    5.5,    5.5,  999.0,  999.0,    5.5,  999.0,    5.5,    5.5,    5.5,    5.5,    5.5,  999.0,    5.5,    5.5,    5.5,  999.0,  999.0,  999.0,  999.0,    5.5,    5.5,    5.5,    5.5,    5.5,  999.0,    5.5,    5.5,  999.0,    5.5,  999.0,  999.0,  999.0,    5.5,    5.5,  999.0,    5.5,  999.0,    5.5,    5.5,  999.0,  999.0,    5.5,    5.5,    5.5,  999.0,    5.5,    5.5,    5.5,    5.5,    5.5,  999.0,  999.0,    5.5,  999.0,  999.0,    5.5,  999.0,    5.5,    5.5
2008/10/02 00:30,    5.5,    5.5,  999.0,    5.5,    5.5,    5.5,  999.0,    5.5,    5.5,    5.5,  999.0,    5.5,    5.5,    5.5,    5.5,    5.5,    5.5,  999.0,    5.5,    5.5,    5.5,    5.5,  999.0,  999.0,    5.5,    5.5,    5.5,    5.5,    5.5,  999.0,  999.0,    5.5,    5.5,  999.0,  999.0,    5.5,    5.5,    5.5,    5.5,    5.5,    5.5,    5.5,    5.5,    5.5,  999.0,    5.5,    5.5,  999.0,  999.0,    5.5,    5.5,    5.5,  999.0,    5.5,  999.0,  999.0,  999.0,  999.0,    5.5,  999.0,    5.5,  999.0,    5.5,  999.0,    5.5,    5.5,  999.0,    5.5,  999.0,  999.0,  999.0,    5.5,    5.5,    5.5,    5.5,    5.5,  999.0,    5.5,  999.0,  999.0,  999.0,    5.5,    5.5,  999.0,  999.0,    5.5,  999.0,  999.0,    5.5,    5.5,    5.5,  999.0,  999.0,    5.5,  999.0,  999.0,    5.5,  999.0
2008/10/02 00:40,    5.5,    5.5,  999.0,    5.5,    5.5,    5.5,  999.0,    5.5,    5.5,    5.5,  999.0,    5.5,    5.5,    5.5,  999.0,    5.5,    5.5,    5.5,    5.5,    5.5,    5.5,    5.5,    5.5,  999.0,    5.5,    5.5,  999.0,    5.5,    5.5,    5.5,    5.5,    5.5,    5.5,  999.0,  999.0,  999.0,    5.5,    5.5,    5.5,    5.5,    5.5,    5.5,  999.0,  999.0,    5.5,  999.0,  999.0,  999.0,  999.0,  999.0,  999.0,    5.5,  999.0,    5.5,    5.5,  999.0,  999.0,    5.5,    5.5,  999.0,  999.0,    5.5,    5.5,  999.0,  999.0,    5.5,  999.0,    5.5,  999.0,  999.0,  999.0,    5.5,    5.5,    5.5,    5.5,  999.0,    5.5,    5.5,    5.5,    5.5,    5.5,    5.5,    5.5,  999.0,  999.0,    5.5,  999.0,    5.5,    5.5,  999.0,  999.0,  999.0,  999.0,  999.0,    5.5,  999.0,  999.0,  999.0
2008/10/02 00:50,    5.5,    5.5,  999.0,    5.5,    5.5,    5.5,  999.0,    5.5,    5.5,    5.5,  999.0,    5.5,    5.5,    5.5,  999.0,  999.0,  999.0,    5.5,    5.5,    5.5,    5.5,    5.5,    5.5,    5.5,    5.5,    5.5,    5.5,    5.5,    5.5,  999.0,  999.0,    5.5,  999.0,    5.5,    5.5,  999.0,    5.5,    5.5,  999.0,    5.5,    5.5,  999.0,  999.0,  999.0,  999.0,  999.0,    5.5,  999.0,  999.0,    5.5,  999.0,    5.5,    5.5,    5.5,  999.0,  999.0,  999.0,  999.0,  999.0,  999.0,    5.5,    5.5,  999.0,    5.5,  999.0,  999.0,  999.0,  999.0,  999.0,  999.0,  999.0,    5.5,    5.5,    5.5,  999.0,  999.0,    5.5,  999.0,    5.5,    5.5,    5.5,    5.5,    5.5,  999.0,    5.5,  999.0,  999.0,    5.5,    5.5,  999.0,  999.0,  999.0,  999.0,  999.0,  999.0,    5.5,  999.0,    5.5
2008/10/02 01:00,    5.5,    5.5,  999.0,    5.5,    5.5,    5.5,  999.0,    5.5,    5.5,    5.5,  999.0,    5.5,    5.5,    5.5,  999.0,    5.5,    5.5,    5.5,    5.5,    5.5,  999.0,    5.5,    5.5,    5.5,  999.0,    5.5,  999.0,    5.5,    5.5,  999.0,    5.5,    5.5,    5.5,    5.5,  999.0,    5.5,    5.5,  999.0,    5.5,  999.0,    5.5,    5.5,  999.0,    5.5,    5.5,  999.0,  999.0,    5.5,    5.5,    5.5,  999.0,  999.0,    5.5,  999.0,  999.0,  999.0,  999.0,  999.0,    5.5,  999.0,    5.5,    5.5,    5.5,    5.5,  999.0,  999.0,    5.5,  999.0,  999.0,    5.5,  999.0,    5.5,    5.5,    5.5,    5.5,    5.5,  999.0,  999.0,    5.5,    5.5,  999.0,    5.5,    5.5,  999.0,    5.5,  999.0,    5.5,    5.5,    5.5,  999.0,  999.0,  999.0,    5.5,  999.0,  999.0,    5.5,  999.0,    5.5
2008/10/02 01:10,    5.5,    5.5,  999.0,    5.5,    5.5,    5.5,  999.0,    5.5,    5.5,    5.5,  999.0,    5.5,  999.0,    5.5,    5.5,  999.0,    5.5,  999.0,    5.5,    5.5,    5.5,    5.5,    5.5,    5.5,  999.0,  999.0,    5.5,    5.5,    5.5,  999.0,    5.5,    5.5,  999.0,  999.0,    5.5,    5.5,  999.0,    5.5,    5.5,    5.5,    5.5,    5.5,    5.5,  999.0,    5.5,  999.0,    5.5,    5.5,    5.5,    5.5,    5.5,  999.0,  999.0,    5.5,  999.0,    5.5,  999.0,  999.0,  999.0,    5.5,    5.5,  999.0,    5.5,    5.5,    5.5,  999.0,  999.0,  999.0,  999.0,  999.0,  999.0,    5.5,  999.0,  999.0,  999.0,    5.5,  999.0,    5.5,    5.5,  999.0,    5.5,    5.5,    5.5,  999.0,  999.0,    5.5,  999.0,    5.5,    5.5,  999.0,    5.5,  999.0,  999.0,  999.0,    5.5,  999.0,  999.0,  999.0
2008/10/02 01:20,    5.5,    5.5,  999.0,    5.5,    5.5,    5.5,  999.0,    5.5,    5.5,    5.5,    5.5,    5.5,    5.5,    5.5,  999.0,    5.5,  999.0,    5.5,  999.0,    5.5,  999.0,    5.5,    5.5,  999.0,    5.5,    5.5,    5.5,  999.0,    5.5,    5.5,  999.0,  999.0,    5.5,  999.0,    5.5,    5.5,    5.5,    5.5,    5.5,    5.5,  999.0,    5.5,    5.5,    5.5,    5.5,    5.5,    5.5,    5.5,  999.0,    5.5,  999.0,    5.5,    5.5,    5.5,  999.0,    5.5,    5.5,    5.5,  999.0,    5.5,    5.5,    5.5,    5.5,  999.0,    5.5,    5.5,  999.0,  999.0,  999.0,  999.0,  999.0,  999.0,    5.5,    5.5,    5.5,    5.5,    5.5,    5.5,    5.5,    5.5,    5.5,    5.5,    5.5,  999.0,    5.5,    5.5,    5.5,    5.5,    5.5,  999.0,    5.5,  999.0,  999.0,  999.0,  999.0,    5.5,    5.5,  999.0
2008/10/02 01:30,    5.5,    5.5,  999.0,    5.5,    5.5,    5.5,    5.5,    5.5,    5.5,    5.5,    5.5,    5.5,    5.5,    5.5,    5.5,    5.5,    5.5,    5.5,    5.5,    5.5,    5.5,    5.5,    5.5,    5.5,    5.5,    5.5,    5.5,    5.5,    5.5,  999.0,  999.0,  999.0,    5.5,    5.5,    5.5,    5.5,    5.5,    5.5,  999.0,  999.0,    5.5,    5.5,    5.5,    5.5,    5.5,    5.5,    5.5,    5.5,    5.5,    5.5,    5.5,    5.5,    5.5,    5.5,    5.5,    5.5,    5.5,  999.0,    5.5,  999.0,  999.0,    5.5,    5.5,    5.5,    5.5,    5.5,  999.0,    5.5,    5.5,    5.5,  999.0,  999.0,    5.5,  999.0,    5.5,    5.5,    5.5,    5.5,    5.5,    5.5,    5.5,  999.0,  999.0,  999.0,  999.0,    5.5,    5.5,    5.5,    5.5,    5.5,    5.5,  999.0,  999.0,  999.0,    5.5,  999.0,    5.5,    5.5
2008/10/02 01:40,    5.5,    5.5,    5.5,    5.5,    5.5,    5.5,  999.0,    5.5,    5.5,    5.5,  999.0,    5.5,  999.0,    5.5,  999.0,  999.0,    5.5,    5.5,    5.5,    5.5,    5.5,    5.5,    5.5,    5.5,  999.0,    5.5,  999.0,    5.5,    5.5,    5.5,    5.5,  999.0,  999.0,    5.5,    5.5,    5.5,    5.5,    5.5,  999.0,    5.5,    5.5,    5.5,    5.5,    5.5,  999.0,    5.5,  999.0,    5.5,    5.5,  999.0,    5.5,    5.5,  999.0,  999.0,  999.0,    5.5,    5.5,  999.0,  999.0,  999.0,  999.0,    5.5,    5.5,    5.5,  999.0,    5.5,    5.5,    5.5,  999.0,  999.0,  999.0,  999.0,    5.5,  999.0,    5.5,    5.5,    5.5,    5.5,    5.5,    5.5,    5.5,    5.5,  999.0,    5.5,    5.5,    5.5,  999.0,    5.5,    5.5,    5.5,  999.0,  999.0,  999.0,  999.0,  999.0,  999.0,  999.0,    5.5
2008/10/02 01:50,    5.5,    5.5,  999.0,    5.5,    5.5,    5.5,  999.0,    5.5,    5.5,    5.5,  999.0,    5.5,    5.5,    5.5,    5.5,    5.5,    5.5,  999.0,  999.0,    5.5,    5.5,    5.5,  999.0,  999.0,    5.5,    5.5,  999.0,    5.5,  999.0,    5.5,    5.5,    5.5,  999.0,    5.5,  999.0,    5.5,    5.5,    5.5,    5.5,    5.5,  999.0,    5.5,    5.5,  999.0,    5.5,    5.5,    5.5,    5.5,    5.5,  999.0,    5.5,  999.0,  999.0,  999.0,    5.5,    5.5,  999.0,  999.0,    5.5,  999.0,    5.5,  999.0,    5.5,    5.5,    5.5,    5.5,  999.0,    5.5,    5.5,  999.0,  999.0,  999.0,    5.5,    5.5,  999.0,    5.5,    5.5,    5.5,  999.0,    5.5,  999.0,  999.0,    5.5,    5.5,    5.5,    5.5,    5.5,  999.0,    5.5,    5.5,    5.5,  999.0,  999.0,  999.0,  999.0,    5.5,  999.0,    5.5
2008/10/02 02:00,    5.5,    5.5,  999.0,    5.5,    5.5,    5.5,  999.0,    5.5,    5.5,    5.5,  999.0,    5.5,  999.0,    5.5,  999.0,    5.5,  999.0,  999.0,  999.0,  999.0,    5.5,    5.5,    5.5,    5.5,    5.5,    5.5,  999.0,    5.5,  999.0,    5.5,  999.0,    5.5,    5.5,    5.5,    5.5,  999.0,  999.0,  999.0,  999.0,  999.0,    5.5,    5.5,    5.5,    5.5,  999.0,    5.5,  999.0,  999.0,  999.0,  999.0,    5.5,  999.0,    5.5,  999.0,  999.0,    5.5,    5.5,  999.0,    5.5,    5.5,    5.5,    5.5,  999.0,  999.0,  999.0,  999.0,  999.0,  999.0,    5.5,    5.5,    5.5,    5.5,    5.5,    5.5,  999.0,    5.5,    5.5,    5.5,    5.5,    5.5,    5.5,    5.5,  999.0,    5.5,  999.0,  999.0,  999.0,    5.5,  999.0,    5.5,    5.5,  999.0,    5.5,    5.5,    5.5,    5.5,    5.5,    5.5
2008/10/02 02:10,    5.5,    5.5,    5.5,    5.5,    5.5,    5.5,  999.0,    5.5,  999.0,    5.5,  999.0,    5.5,  999.0,    5.5,  999.0,  999.0,    5.5,    5.5,    5.5,    5.5,    5.5,    5.5,    5.5,    5.5,  999.0,    5.5,    5.5,    5.5,    5.5,    5.5,    5.5,    5.5,    5.5,    5.5,    5.5,  999.0,  999.0,  999.0,    5.5,    5.5,    5.5,    5.5,    5.5,    5.5,  999.0,    5.5,    5.5,    5.5,  999.0,    5.5,    5.5,  999.0,    5.5,    5.5,    5.5,    5.5,    5.5,    5.5,    5.5,    5.5,    5.5,    5.5,    5.5,    5.5,    5.5,  999.0,    5.5,  999.0,    5.5,    5.5,    5.5,    5.5,    5.5,    5.5,    5.5,  999.0,    5.5,  999.0,    5.5,    5.5,    5.5,    5.5,    5.5,    5.5,  999.0,  999.0,    5.5,  999.0,  999.0,    5.5,    5.5,    5.5,    5.5,    5.5,    5.5,    5.5,  999.0,    5.5
2008/10/02 02:20,  999.0,    5.5,  999.0,    5.5,    5.5,    5.5,    5.5,    5.5,    5.5,    5.5,  999.0,    5.5,  999.0,    5.5,  999.0,    5.5,  999.0,  999.0,    5.5,    5.5,    5.5,  999.0,    5.5,  999.0,    5.5,    5.5,    5.5,    5.5,    5.5,    5.5,    5.5,    5.5,  999.0,    5.5,    5.5,  999.0,  999.0,  999.0,  999.0,    5.5,    5.5,    5.5,    5.5,    5.5,    5.5,    5.5,  999.0,    5.5,  999.0,  999.0,  999.0,  999.0,  999.0,  999.0,    5.5,    5.5,    5.5,  999.0,    5.5,    5.5,  999.0,    5.5,  999.0,  999.0,    5.5,  999.0,    5.5,    5.5,  999.0,    5.5,    5.5,    5.5,    5.5,  999.0,    5.5,    5.5,    5.5,    5.5,    5.5,    5.5,    5.5,    5.5,  999.0,    5.5,  999.0,  999.0,  999.0,  999.0,    5.5,    5.5,    5.5,    5.5,    5.5,    5.5,  999.0,    5.5,  999.0,    5.5
2008/10/02 02:30,    5.5,    5.5,  999.0,    5.5,    5.5,    5.5,    5.5,    5.5,    5.5,    5.5,  999.0,    5.5,  999.0,    5.5,  999.0,  999.0,  999.0,  999.0,  999.0,  999.0,    5.5,    5.5,    5.5,    5.5,    5.5,    5.5,    5.5,    5.5,    5.5,    5.5,  999.0,    5.5,    5.5,  999.0,    5.5,  999.0,    5.5,  999.0,    5.5,  999.0,    5.5,    5.5,    5.5,    5.5,    5.5,  999.0,    5.5,    5.5,  999.0,    5.5,    5.5,  999.0,    5.5,  999.0,  999.0,    5.5,    5.5,    5.5,    5.5,    5.5,    5.5,    5.5,    5.5,    5.5,    5.5,    5.5,  999.0,    5.5,    5.5,    5.5,  999.0,  999.0,    5.5,    5.5,    5.5,  999.0,    5.5,    5.5,    5.5,    5.5,    5.5,    5.5,  999.0,    5.5,  999.0,    5.5,  999.0,  999.0,  999.0,  999.0,  999.0,    5.5,    5.5,  999.0,  999.0,  999.0,  999.0,  999.0
2008/10/02 02:40,    5.5,    5.5,  999.0,    5.5,  999.0,    5.5,  999.0,    5.5,    5.5,    5.5,    5.5,    5.5,  999.0,    5.5,  999.0,  999.0,  999.0,    5.5,    5.5,  999.0,    5.5,    5.5,    5.5,    5.5,    5.5,  999.0,  999.0,    5.5,    5.5,    5.5,    5.5,    5.5,    5.5,    5.5,    5.5,    5.5,  999.0,  999.0,    5.5,  999.0,    5.5,    5.5,    5.5,    5.5,    5.5,    5.5,    5.5,  999.0,    5.5,    5.5,    5.5,  999.0,    5.5,  999.0,  999.0,    5.5,    5.5,    5.5,    5.5,    5.5,    5.5,    5.5,    5.5,    5.5,  999.0,  999.0,    5.5,    5.5,    5.5,    5.5,    5.5,  999.0,    5.5,    5.5,    5.5,    5.5,    5.5,    5.5,    5.5,    5.5,  999.0,  999.0,    5.5,    5.5,  999.0,  999.0,  999.0,  999.0,    5.5,  999.0,    5.5,    5.5,    5.5,    5.5,    5.5,  999.0,  999.0,  999.0
2008/10/02 02:50,    5.5,    5.5,  999.0,    5.5,    5.5,    5.5,  999.0,    5.5,    5.5,    5.5,    5.5,    5.5,    5.5,    5.5,  999.0,  999.0,  999.0,    5.5,    5.5,    5.5,    5.5,    5.5,    5.5,    5.5,    5.5,  999.0,    5.5,    5.5,  999.0,    5.5,    5.5,    5.5,    5.5,    5.5,  999.0,    5.5,    5.5,    5.5,    5.5,    5.5,    5.5,    5.5,    5.5,    5.5,    5.5,  999.0,    5.5,    5.5,  999.0,    5.5,    5.5,  999.0,  999.0,    5.5,    5.5,    5.5,    5.5,    5.5,    5.5,    5.5,    5.5,    5.5,    5.5,    5.5,  999.0,    5.5,  999.0,    5.5,    5.5,    5.5,    5.5,  999.0,    5.5,  999.0,    5.5,  999.0,    5.5,  999.0,    5.5,    5.5,    5.5,    5.5,    5.5,    5.5,  999.0,  999.0,    5.5,  999.0,    5.5,  999.0,  999.0,    5.5,    5.5,    5.5,    5.5,    5.5,  999.0,    5.5
2008/10/02 03:00,    5.5,    5.5,  999.0,    5.5,    5.5,    5.5,  999.0,    5.5,    5.5,    5.5,  999.0,    5.5,    5.5,    5.5,    5.5,  999.0,    5.5,  999.0,    5.5,    5.5,    5.5,  999.0,  999.0,  999.0,  999.0,  999.0,    5.5,  999.0,    5.5,    5.5,  999.0,    5.5,    5.5,  999.0,    5.5,  999.0,    5.5,  999.0,    5.5,    5.5,    5.5,    5.5,    5.5,    5.5,    5.5,    5.5,  999.0,    5.5,    5.5,    5.5,    5.5,  999.0,  999.0,    5.5,  999.0,    5.5,    5.5,    5.5,    5.5,  999.0,  999.0,    5.5,    5.5,    5.5,    5.5,    5.5,  999.0,  999.0,    5.5,    5.5,    5.5,    5.5,    5.5,    5.5,    5.5,  999.0,  999.0,    5.5,    5.5,    5.5,    5.5,  999.0,    5.5,    5.5,  999.0,    5.5,    5.5,    5.5,  999.0,  999.0,  999.0,  999.0,  999.0,  999.0,    5.5,    5.5,  999.0,  999.0
2008/10/02 03:10,    5.5,    5.5,  999.0,    5.5,    5.5,    5.5,  999.0,    5.5,    5.5,    5.5,  999.0,    5.5,  999.0,    5.5,  999.0,    5.5,    5.5,    5.5,    5.5,    5.5,  999.0,  999.0,    5.5,    5.5,  999.0,  999.0,    5.5,  999.0,    5.5,    5.5,  999.0,    5.5,    5.5,    5.5,  999.0,    5.5,  999.0,    5.5,    5.5,    5.5,    5.5,    5.5,  999.0,    5.5,  999.0,  999.0,  999.0,    5.5,  999.0,  999.0,  999.0,  999.0,  999.0,    5.5,    5.5,  999.0,    5.5,    5.5,    5.5,  999.0,    5.5,  999.0,    5.5,  999.0,    5.5,    5.5,    5.5,    5.5,    5.5,    5.5,    5.5,  999.0,    5.5,    5.5,    5.5,    5.5,  999.0,    5.5,  999.0,  999.0,  999.0,    5.5,  999.0,    5.5,    5.5,  999.0,    5.5,    5.5,    5.5,    5.5,    5.5,    5.5,    5.5,  999.0,    5.5,  999.0,  999.0,  999.0
2008/10/02 03:20,    5.5,    5.5,  999.0,    5.5,    5.5,    5.5,  999.0,    5.5,    5.5,    5.5,  999.0,    5.5,    5.5,    5.5,    5.5,    5.5,    5.5,    5.5,  999.0,    5.5,  999.0,  999.0,    5.5,    5.5,  999.0,    5.5,    5.5,    5.5,    5.5,  999.0,    5.5,    5.5,    5.5,    5.5,  999.0,    5.5,    5.5,    5.5,    5.5,    5.5,    5.5,    5.5,  999.0,    5.5,    5.5,    5.5,    5.5,    5.5,    5.5,  999.0,    5.5,    5.5,    5.5,    5.5,    5.5,    5.5,    5.5,    5.5,    5.5,    5.5,    5.5,    5.5,    5.5,    5.5,    5.5,    5.5,  999.0,    5.5,    5.5,    5.5,  999.0,    5.5,  999.0,    5.5,  999.0,  999.0,  999.0,  999.0,  999.0,  999.0,    5.5,    5.5,    5.5,  999.0,  999.0,    5.5,    5.5,  999.0,    5.5,    5.5,    5.5,  999.0,  999.0,  999.0,  999.0,    5.5,    5.5,    5.5
2008/10/02 03:30,    5.5,    5.5,  999.0,    5.5,    5.5,    5.5,  999.0,    5.5,    5.5,    5.5,    5.5,    5.5,    5.5,    5.5,  999.0,    5.5,    5.5,  999.0,    5.5,    5.5,  999.0,    5.5,    5.5,  999.0,    5.5,    5.5,    5.5,    5.5,    5.5,    5.5,  999.0,  999.0,  999.0,  999.0,    5.5,    5.5,  999.0,    5.5,  999.0,  999.0,  999.0,  999.0,  999.0,    5.5,    5.5,    5.5,    5.5,    5.5,    5.5,    5.5,    5.5,    5.5,    5.5,    5.5,    5.5,    5.5,  999.0,  999.0,    5.5,    5.5,    5.5,    5.5,    5.5,  999.0,    5.5,    5.5,    5.5,    5.5,    5.5,    5.5,  999.0,    5.5,  999.0,    5.5,  999.0,    5.5,  999.0,  999.0,    5.5,    5.5,    5.5,  999.0,  999.0,    5.5,  999.0,    5.5,  999.0,  999.0,  999.0,    5.5,    5.5,  999.0,  999.0,    5.5,    5.5,    5.5,  999.0,    5.5
2008/10/02 03:40,    5.5,    5.5,  999.0,    5.5,    5.5,    5.5,  999.0,    5.5,    5.5,    5.5,  999.0,    5.5,    5.5,    5.5,  999.0,    5.5,  999.0,    5.5,    5.5,    5.5,  999.0,  999.0,    5.5,    5.5,  999.0,    5.5,    5.5,    5.5,    5.5,    5.5,  999.0,  999.0,  999.0,    5.5,    5.5,  999.0,    5.5,    5.5,  999.0,    5.5,  999.0,    5.5,    5.5,  999.0,    5.5,  999.0,    5.5,    5.5,    5.5,    5.5,  999.0,  999.0,  999.0,    5.5,    5.5,    5.5,    5.5,    5.5,  999.0,    5.5,    5.5,    5.5,    5.5,  999.0,    5.5,    5.5,    5.5,    5.5,  999.0,    5.5,    5.5,    5.5,    5.5,    5.5,    5.5,    5.5,  999.0,  999.0,  999.0,    5.5,  999.0,    5.5,  999.0,    5.5,  999.0,  999.0,    5.5,    5.5,    5.5,  999.0,  999.0,    5.5,    5.5,  999.0,  999.0,    5.5,  999.0,    5.5
2008/10/02 03:50,    5.5,    5.5,  999.0,    5.5,    5.5,    5.5,  999.0,    5.5,    5.5,    5.5,  999.0,    5.5,    5.5,    5.5,    5.5,  999.0,  999.0,    5.5,    5.5,    5.5,  999.0,    5.5,  999.0,  999.0,    5.5,  999.0,  999.0,    5.5,    5.5,    5.5,  999.0,  999.0,    5.5,  999.0,  999.0,    5.5,    5.5,    5.5,  999.0,  999.0,    5.5,    5.5,    5.5,  999.0,  999.0,    5.5,    5.5,    5.5,  999.0,    5.5,    5.5,  999.0,  999.0,  999.0,    5.5,    5.5,    5.5,    5.5,    5.5,  999.0,    5.5,    5.5,  999.0,    5.5,    5.5,    5.5,  999.0,  999.0,    5.5,    5.5,    5.5,    5.5,  999.0,    5.5,    5.5,  999.0,    5.5,  999.0,  999.0,    5.5,  999.0,  999.0,  999.0,  999.0,  999.0,  999.0,    5.5,    5.5,    5.5,  999.0,  999.0,  999.0,  999.0,  999.0,  999.0,  999.0,    5.5,    5.5
2008/10/02 04:00,   -5.5,   -5.5,  999.0,  999.0,  999.0,   -5.5,  999.0,   -5.5,   -5.5,   -5.5,  999.0,   -5.5,  999.0,   -5.5,  999.0,   -5.5,  999.0,  999.0,  999.0,   -5.5,  999.0,  999.0,  999.0,  999.0,  999.0,  999.0,   -5.5,  999.0,   -5.5,  999.0,   -5.5,  999.0,   -5.5,   -5.5,   -5.5,  999.0,   -5.5,   -5.5,  999.0,  999.0,  999.0,  999.0,   -5.5,   -5.5,   -5.5,   -5.5,   -5.5,   -5.5,  999.0,  999.0,  999.0,  999.0,   -5.5,   -5.5,  999.0,   -5.5,   -5.5,   -5.5,  999.0,  999.0,  999.0,   -5.5,  999.0,  999.0,   -5.5,  999.0,  999.0,   -5.5,   -5.5,   -5.5,  999.0,   -5.5,   -5.5,  999.0,   -5.5,   -5.5,   -5.5,   -5.5,   -5.5,  999.0,  999.0,  999.0,  999.0,  999.0,  999.0,   -5.5,  999.0,   -5.5,   -5.5,  999.0,  999.0,  999.0,   -5.5,   -5.5,   -5.5,  999.0,  999.0,  999.0
2008/10/02 04:10,  999.0,   -5.5,  999.0,   -5.5,  999.0,   -5.5,  999.0,   -5.5,  999.0,   -5.5,  999.0,   -5.5,  999.0,   -5.5,  999.0,  999.0,  999.0,  999.0,  999.0,  999.0,  999.0,  999.0,   -5.5,   -5.5,  999.0,   -5.5,   -5.5,   -5.5,   -5.5,  999.0,   -5.5,   -5.5,   -5.5,  999.0,   -5.5,   -5.5,  999.0,   -5.5,   -5.5,   -5.5,   -5.5,   -5.5,  999.0,   -5.5,  999.0,   -5.5,   -5.5,   -5.5,   -5.5,   -5.5,   -5.5,   -5.5,   -5.5,  999.0,   -5.5,  999.0,   -5.5,   -5.5,   -5.5,   -5.5,  999.0,  999.0,   -5.5,  999.0,   -5.5,   -5.5,   -5.5,   -5.5,   -5.5,   -5.5,   -5.5,   -5.5,   -5.5,   -5.5,   -5.5,   -5.5,   -5.5,   -5.5,  999.0,   -5.5,   -5.5,   -5.5,  999.0,  999.0,  999.0,  999.0,  999.0,  999.0,   -5.5,   -5.5,  999.0,   -5.5,   -5.5,  999.0,   -5.5,  999.0,   -5.5,  999.0
2008/10/02 04:20,   -5.5,   -5.5,  999.0,   -5.5,   -5.5,   -5.5,  999.0,   -5.5,   -5.5,   -5.5,   -5.5,   -5.5,   -5.5,   -5.5,   -5.5,  999.0,  999.0,   -5.5,  999.0,  999.0,  999.0,  999.0,  999.0,  999.0,   -5.5,   -5.5,  999.0,   -5.5,  999.0,   -5.5,  999.0,   -5.5,  999.0,   -5.5,   -5.5,   -5.5,   -5.5,   -5.5,   -5.5,  999.0,  999.0,   -5.5,   -5.5,   -5.5,   -5.5,   -5.5,  999.0,   -5.5,   -5.5,  999.0,   -5.5,   -5.5,   -5.5,   -5.5,   -5.5,   -5.5,   -5.5,   -5.5,   -5.5,  999.0,  999.0,   -5.5,   -5.5,   -5.5,   -5.5,   -5.5,   -5.5,   -5.5,   -5.5,   -5.5,   -5.5,   -5.5,   -5.5,   -5.5,   -5.5,   -5.5,   -5.5,   -5.5,  999.0,   -5.5,   -5.5,  999.0,  999.0,   -5.5,   -5.5,   -5.5,   -5.5,   -5.5,   -5.5,   -5.5,   -5.5,  999.0,   -5.5,   -5.5,   -5.5,   -5.5,   -5.5,   -5.5
2008/10/02 04:30,  999.0,   -5.5,  999.0,   -5.5,   -5.5,   -5.5,  999.0,   -5.5,   -5.5,   -5.5,  999.0,   -5.5,   -5.5,   -5.5,   -5.5,   -5.5,  999.0,  999.0,   -5.5,  999.0,   -5.5,  999.0,  999.0,   -5.5,   -5.5,   -5.5,  999.0,   -5.5,   -5.5,   -5.5,   -5.5,   -5.5,   -5.5,   -5.5,  999.0,  999.0,   -5.5,   -5.5,  999.0,  999.0,   -5.5,   -5.5,   -5.5,   -5.5,   -5.5,   -5.5,   -5.5,   -5.5,   -5.5,   -5.5,   -5.5,  999.0,   -5.5,  999.0,   -5.5,   -5.5,  999.0,   -5.5,   -5.5,  999.0,  999.0,  999.0,  999.0,   -5.5,  999.0,   -5.5,  999.0,   -5.5,   -5.5,   -5.5,   -5.5,  999.0,  999.0,   -5.5,   -5.5,   -5.5,   -5.5,   -5.5,  999.0,   -5.5,  999.0,  999.0,  999.0,  999.0,   -5.5,   -5.5,   -5.5,   -5.5,   -5.5,  999.0,   -5.5,  999.0,   -5.5,   -5.5,   -5.5,   -5.5,   -5.5,  999.0
2008/10/02 04:40,   -5.5,   -5.5,   -5.5,   -5.5,   -5.5,   -5.5,  999.0,   -5.5,   -5.5,   -5.5,  999.0,   -5.5,   -5.5,   -5.5,   -5.5,  999.0,  999.0,  999.0,  999.0,  999.0,  999.0,   -5.5,  999.0,  999.0,   -5.5,   -5.5,  999.0,   -5.5,   -5.5,   -5.5,   -5.5,   -5.5,   -5.5,  999.0,   -5.5,   -5.5,   -5.5,   -5.5,   -5.5,  999.0,   -5.5,   -5.5,   -5.5,  999.0,   -5.5,   -5.5,   -5.5,   -5.5,  999.0,   -5.5,   -5.5,   -5.5,   -5.5,   -5.5,   -5.5,  999.0,   -5.5,   -5.5,  999.0,   -5.5,  999.0,  999.0,  999.0,  999.0,   -5.5,  999.0,   -5.5,   -5.5,  999.0,   -5.5,   -5.5,   -5.5,   -5.5,   -5.5,   -5.5,  999.0,   -5.5,   -5.5,  999.0,  999.0,  999.0,  999.0,  999.0,  999.0,   -5.5,  999.0,   -5.5,   -5.5,  999.0,  999.0,   -5.5,   -5.5,   -5.5,  999.0,   -5.5,   -5.5,  999.0,   -5.5
2008/10/02 04:50,   -5.5,   -5.5,  999.0,   -5.5,  999.0,   -5.5,  999.0,   -5.5,   -5.5,   -5.5,  999.0,   -5.5,   -5.5,   -5.5,  999.0,  999.0,  999.0,  999.0,  999.0,  999.0,  999.0,  999.0,  999.0,  999.0,   -5.5,   -5.5,   -5.5,   -5.5,  999.0,  999.0,   -5.5,   -5.5,   -5.5,   -5.5,   -5.5,  999.0,   -5.5,   -5.5,   -5.5,   -5.5,  999.0,   -5.5,   -5.5,  999.0,   -5.5,  999.0,   -5.5,   -5.5,   -5.5,   -5.5,  999.0,   -5.5,   -5.5,  999.0,   -5.5,   -5.5,  999.0,  999.0,  999.0,  999.0,  999.0,   -5.5,  999.0,  999.0,   -5.5,   -5.5,   -5.5,   -5.5,  999.0,   -5.5,   -5.5,   -5.5,   -5.5,   -5.5,  999.0,  999.0,   -5.5,   -5.5,   -5.5,  999.0,  999.0,  999.0,  999.0,  999.0,   -5.5,   -5.5,  999.0,   -5.5,   -5.5,   -5.5,  999.0,   -5.5,   -5.5,   -5.5,   -5.5,   -5.5,   -5.5,   -5.5
2008/10/02 05:00,   -5.5,   -5.5,  999.0,   -5.5,   -5.5,   -5.5,   -5.5,   -5.5,   -5.5,   -5.5,  999.0,   -5.5,  999.0,   -5.5,   -5.5,   -5.5,  999.0,  999.0,  999.0,  999.0,   -5.5,  999.0,   -5.5,  999.0,   -5.5,   -5.5,   -5.5,   -5.5,  999.0,  999.0,   -5.5,   -5.5,   -5.5,   -5.5,   -5.5,   -5.5,   -5.5,   -5.5,   -5.5,   -5.5,  999.0,   -5.5,   -5.5,   -5.5,   -5.5,   -5.5,   -5.5,   -5.5,   -5.5,  999.0,   -5.5,   -5.5,   -5.5,  999.0,   -5.5,   -5.5,   -5.5,  999.0,  999.0,  999.0,   -5.5,   -5.5,  999.0,   -5.5,   -5.5,   -5.5,   -5.5,   -5.5,   -5.5,   -5.5,   -5.5,  999.0,   -5.5,   -5.5,  999.0,   -5.5,  999.0,  999.0,  999.0,  999.0,  999.0,  999.0,  999.0,  999.0,  999.0,   -5.5,   -5.5,   -5.5,   -5.5,  999.0,   -5.5,   -5.5,   -5.5,   -5.5,   -5.5,   -5.5,  999.0,  999.0
2008/10/02 05:10,   -5.5,   -5.5,  999.0,   -5.5,   -5.5,   -5.5,  999.0,   -5.5,   -5.5,   -5.5,   -5.5,   -5.5,   -5.5,   -5.5,   -5.5,  999.0,  999.0,  999.0,  999.0,  999.0,  999.0,  999.0,  999.0,   -5.5,  999.0,   -5.5,   -5.5,   -5.5,   -5.5,  999.0,   -5.5,   -5.5,   -5.5,   -5.5,  999.0,   -5.5,   -5.5,   -5.5,   -5.5,   -5.5,   -5.5,   -5.5,   -5.5,   -5.5,   -5.5,   -5.5,   -5.5,   -5.5,  999.0,   -5.5,  999.0,   -5.5,   -5.5,  999.0,  999.0,   -5.5,  999.0,  999.0,  999.0,  999.0,   -5.5,  999.0,  999.0,  999.0,   -5.5,   -5.5,  999.0,   -5.5,   -5.5,   -5.5,  999.0,   -5.5,  999.0,   -5.5,   -5.5,   -5.5,   -5.5,   -5.5,  999.0,  999.0,   -5.5,   -5.5,  999.0,   -5.5,   -5.5,  999.0,   -5.5,   -5.5,   -5.5,  999.0,   -5.5,  999.0,   -5.5,   -5.5,   -5.5,   -5.5,   -5.5,   -5.5
2008/10/02 05:20,   -5.5,   -5.5,  999.0,   -5.5,   -5.5,   -5.5,   -5.5,   -5.5,   -5.5,   -5.5,   -5.5,   -5.5,   -5.5,   -5.5,  999.0,   -5.5,  999.0,  999.0,  999.0,   -5.5,   -5.5,  999.0,  999.0,   -5.5,  999.0,   -5.5,   -5.5,   -5.5,   -5.5,   -5.5,   -5.5,   -5.5,   -5.5,   -5.5,   -5.5,   -5.5,   -5.5,   -5.5,   -5.5,   -5.5,   -5.5,  999.0,  999.0,  999.0,  999.0,  999.0,  999.0,   -5.5,   -5.5,   -5.5,   -5.5,   -5.5,  999.0,  999.0,  999.0,  999.0,   -5.5,  999.0,  999.0,  999.0,   -5.5,   -5.5,  999.0,  999.0,   -5.5,   -5.5,   -5.5,  999.0,   -5.5,   -5.5,   -5.5,   -5.5,   -5.5,  999.0,   -5.5,   -5.5,   -5.5,   -5.5,  999.0,  999.0,   -5.5,  999.0,  999.0,  999.0,  999.0,  999.0,   -5.5,   -5.5,   -5.5,   -5.5,   -5.5,   -5.5,   -5.5,   -5.5,   -5.5,  999.0,  999.0,  999.0
2008/10/02 05:30,   -5.5,   -5.5,  999.0,   -5.5,   -5.5,   -5.5,  999.0,   -5.5,   -5.5,   -5.5,  999.0,   -5.5,   -5.5,   -5.5,   -5.5,  999.0,   -5.5,  999.0,  999.0,  999.0,   -5.5,   -5.5,   -5.5,   -5.5,   -5.5,   -5.5,   -5.5,  999.0,  999.0,   -5.5,   -5.5,  999.0,   -5.5,   -5.5,   -5.5,   -5.5,   -5.5,   -5.5,   -5.5,   -5.5,  999.0,   -5.5,  999.0,  999.0,   -5.5,  999.0,  999.0,   -5.5,   -5.5,   -5.5,   -5.5,   -5.5,  999.0,   -5.5,   -5.5,   -5.5,   -5.5,   -5.5,  999.0,   -5.5,   -5.5,  999.0,  999.0,   -5.5,   -5.5,  999.0,   -5.5,   -5.5,   -5.5,  999.0,   -5.5,   -5.5,   -5.5,  999.0,   -5.5,   -5.5,   -5.5,   -5.5,  999.0,  999.0,  999.0,  999.0,  999.0,   -5.5,  999.0,   -5.5,   -5.5,  999.0,   -5.5,   -5.5,   -5.5,   -5.5,   -5.5,   -5.5,   -5.5,   -5.5,   -5.5,   -5.5
2008/10/02 05:40,   -5.5,   -5.5,  999.0,   -5.5,   -5.5,   -5.5,   -5.5,   -5.5,   -5.5,   -5.5,  999.0,   -5.5,  999.0,   -5.5,   -5.5,   -5.5,   -5.5,  999.0,  999.0,   -5.5,   -5.5,   -5.5,   -5.5,   -5.5,  999.0,   -5.5,   -5.5,   -5.5,  999.0,   -5.5,  999.0,   -5.5,   -5.5,  999.0,   -5.5,   -5.5,   -5.5,   -5.5,   -5.5,  999.0,  999.0,   -5.5,   -5.5,   -5.5,   -5.5,  999.0,  999.0,   -5.5,   -5.5,  999.0,   -5.5,   -5.5,  999.0,   -5.5,   -5.5,  999.0,   -5.5,   -5.5,  999.0,   -5.5,  999.0,  999.0,  999.0,  999.0,   -5.5,   -5.5,  999.0,   -5.5,   -5.5,  999.0,   -5.5,   -5.5,   -5.5,   -5.5,   -5.5,   -5.5,   -5.5,  999.0,   -5.5,  999.0,  999.0,  999.0,  999.0,  999.0,  999.0,  999.0,   -5.5,   -5.5,   -5.5,   -5.5,  999.0,   -5.5,   -5.5,  999.0,  999.0,   -5.5,  999.0,  999.0
2008/10/02 05:50,   -5.5,   -5.5,   -5.5,   -5.5,   -5.5,   -5.5,   -5.5,   -5.5,   -5.5,   -5.5,   -5.5,   -5.5,  999.0,   -5.5,  999.0,  999.0,  999.0,  999.0,  999.0,  999.0,  999.0,  999.0,   -5.5,  999.0,   -5.5,   -5.5,  999.0,   -5.5,  999.0,   -5.5,  999.0,   -5.5,   -5.5,   -5.5,   -5.5,   -5.5,   -5.5,   -5.5,   -5.5,  999.0,  999.0,   -5.5,   -5.5,   -5.5,   -5.5,   -5.5,   -5.5,   -5.5,   -5.5,   -5.5,   -5.5,   -5.5,   -5.5,   -5.5,  999.0,   -5.5,   -5.5,  999.0,  999.0,   -5.5,   -5.5,  999.0,   -5.5,   -5.5,   -5.5,   -5.5,   -5.5,   -5.5,   -5.5,   -5.5,   -5.5,   -5.5,   -5.5,   -5.5,   -5.5,   -5.5,   -5.5,   -5.5,   -5.5,   -5.5,   -5.5,   -5.5,   -5.5,  999.0,   -5.5,   -5.5,   -5.5,   -5.5,  999.0,   -5.5,   -5.5,   -5.5,   -5.5,  999.0,   -5.5,   -5.5,  999.0,   -5.5
2008/10/02 06:00,   -5.5,  999.0,  999.0,  999.0,   -5.5,   -5.5,  999.0,   -5.5,  999.0,   -5.5,  999.0,   -5.5,   -5.5,   -5.5,  999.0,   -5.5,  999.0,   -5.5,   -5.5,   -5.5,   -5.5,   -5.5,   -5.5,   -5.5,   -5.5,   -5.5,   -5.5,  999.0,   -5.5,   -5.5,   -5.5,   -5.5,  999.0,  999.0,  999.0,  999.0,   -5.5,   -5.5,  999.0,  999.0,  999.0,   -5.5,   -5.5,   -5.5,   -5.5,   -5.5,  999.0,  999.0,  999.0,   -5.5,   -5.5,   -5.5,   -5.5,   -5.5,   -5.5,   -5.5,   -5.5,   -5.5,   -5.5,   -5.5,   -5.5,  999.0,   -5.5,   -5.5,   -5.5,   -5.5,   -5.5,   -5.5,  999.0,   -5.5,   -5.5,   -5.5,   -5.5,  999.0,  999.0,  999.0,   -5.5,   -5.5,   -5.5,   -5.5,  999.0,  999.0,   -5.5,   -5.5,   -5.5,   -5.5,   -5.5,   -5.5,   -5.5,   -5.5,   -5.5,   -5.5,   -5.5,   -5.5,  999.0,  999.0,  999.0,  999.0
2008/10/02 06:10,  999.0,    0.0,  999.0,    0.0,  999.0,  999.0,  999.0,    2.8,  999.0,    4.2,  999.0,    0.0,  999.0,    5.5,  999.0,  999.0,  999.0,  999.0,  999.0,  999.0,  999.0,  999.0,  999.0,  999.0,  999.0,  999.0,  999.0,  999.0,  999.0,  999.0,  999.0,  999.0,  999.0,  999.0,  999.0,  999.0,  999.0,  999.0,  999.0,  999.0,  999.0,  999.0,  999.0,  999.0,  999.0,  999.0,  999.0,  999.0,  999.0,  999.0,  999.0,  999.0,  999.0,  999.0,  999.0,  999.0,  999.0,  999.0,  999.0,  999.0,  999.0,  999.0,  999.0,  999.0,  999.0,  999.0,  999.0,  999.0,  999.0,  999.0,  999.0,  999.0,  999.0,  999.0,  999.0,  999.0,  999.0,  999.0,  999.0,  999.0,  999.0,  999.0,  999.0,  999.0,  999.0,  999.0,  999.0,  999.0,  999.0,  999.0,  999.0,  999.0,  999.0,  999.0,  999.0,  999.0,  999.0,  999.0
2008/10/02 06:20,    5.5,    5.5,  999.0,    5.5,    5.5,    5.5,  999.0,    5.5,    5.5,    5.5,  999.0,    5.5,    5.5,    5.5,  999.0,  999.0,  999.0,  999.0,  999.0,  999.0,  999.0,  999.0,  999.0,  999.0,  999.0,  999.0,  999.0,  999.0,  999.0,  999.0,  999.0,  999.0,  999.0,  999.0,  999.0,  999.0,  999.0,  999.0,  999.0,  999.0,  999.0,  999.0,  999.0,  999.0,  999.0,  999.0,  999.0,  999.0,  999.0,  999.0,  999.0,  999.0,  999.0,  999.0,  999.0,  999.0,  999.0,  999.0,  999.0,  999.0,  999.0,  999.0,  999.0,  999.0,  999.0,  999.0,  999.0,  999.0,  999.0,  999.0,  999.0,  999.0,  999.0,  999.0,  999.0,  999.0,  999.0,  999.0,  999.0,  999.0,  999.0,  999.0,  999.0,  999.0,  999.0,  999.0,  999.0,  999.0,  999.0,  999.0,  999.0,  999.0,  999.0,  999.0,  999.0,  999.0,  999.0,  999.0
2008/10/02 06:30,    4.6,    4.6,  999.0,    5.5,    3.3,    2.8,  999.0,    4.4,    4.4,    4.2,  999.0,    2.8,    5.5,    1.9,  999.0,  999.0,  999.0,  999.0,    5.5,  999.0,  999.0,  999.0,  999.0,  999.0,  999.0,  999.0,  999.0,  999.0,  999.0,  999.0,  999.0,  999.0,  999.0,  999.0,  999.0,  999.0,  999.0,  999.0,  999.0,  999.0,  999.0,  999.0,  999.0,  999.0,  999.0,  999.0,  999.0,  999.0,  999.0,  999.0,  999.0,  999.0,  999.0,  999.0,  999.0,    5.5,  999.0,  999.0,  999.0,  999.0,  999.0,  999.0,  999.0,  999.0,  999.0,  999.0,  999.0,  999.0,  999.0,  999.0,    5.5,    5.5,  999.0,  999.0,  999.0,  999.0,  999.0,  999.0,  999.0,  999.0,  999.0,  999.0,  999.0,  999.0,  999.0,  999.0,  999.0,  999.0,  999.0,  999.0,  999.0,  999.0,  999.0,  999.0,  999.0,  999.0,  999.0,  999.0
2008/10/02 06:40,    5.5,    5.5,  999.0,  999.0,  999.0,  999.0,  999.0,  999.0,    5.5,  999.0,  999.0,    5.5,    5.5,    5.5,  999.0,  999.0,  999.0,    5.5,  999.0,    5.5,    5.5,    5.5,    5.5,    5.5,    5.5,  999.0,    5.5,  999.0,    5.5,    5.5,    5.5,    5.5,    5.5,    5.5,  999.0,  999.0,    5.5,    5.5,    5.5,    5.5,  999.0,    5.5,    5.5,    5.5,  999.0,  999.0,  999.0,    5.5,  999.0,    5.5,  999.0,    5.5,  999.0,    5.5,    5.5,    5.5,    5.5,    5.5,  999.0,    5.5,  999.0,  999.0,    5.5,    5.5,    5.5,  999.0,  999.0,  999.0,    5.5,    5.5,    5.5,    5.5,    5.5,    5.5,  999.0,    5.5,    5.5,  999.0,    5.5,  999.0,    5.5,    5.5,  999.0,  999.0,    5.5,    5.5,    5.5,  999.0,    5.5,  999.0,  999.0,    5.5,    5.5,  999.0,    5.5,    5.5,    5.5,    5.5
2008/10/02 06:50,    5.5,    5.5,  999.0,    4.1,    5.5,  999.0,  999.0,  999.0,    1.9,  999.0,  999.0,    0.0,  999.0,   -0.0,  999.0,  999.0,  999.0,  999.0,  999.0,  999.0,    5.5,    5.5,  999.0,  999.0,  999.0,  999.0,    5.5,  999.0,  999.0,    5.5,  999.0,    5.5,    5.5,  999.0,    5.5,    5.5,    5.5,    5.5,    5.5,    5.5,  999.0,    5.5,  999.0,    5.5,    5.5,    5.5,  999.0,    5.5,    5.5,    5.5,    5.5,  999.0,  999.0,    5.5,    5.5,  999.0,  999.0,  999.0,    5.5,    5.5,    5.5,    5.5,    5.5,    5.5,    5.5,    5.5,    5.5,    2.7,    1.8,    4.1,    5.5,    2.7,    3.6,    1.8,    4.1,    1.8,  999.0,    5.5,    5.5,  999.0,    5.5,  999.0,  999.0,    5.5,  999.0,  999.0,  999.0,    5.5,  999.0,  999.0,    5.5,  999.0,  999.0,    5.5,  999.0,    5.5,  999.0,  999.0
2008/10/02 07:00,    4.4,    4.4,  999.0,    2.8,    4.4,    5.5,  999.0,    5.5,    4.1,    3.3,  999.0,    5.5,    5.5,  999.0,  999.0,  999.0,  999.0,  999.0,  999.0,  999.0,  999.0,  999.0,  999.0,  999.0,  999.0,  999.0,  999.0,  999.0,  999.0,  999.0,  999.0,  999.0,    5.5,  999.0,    5.5,  999.0,  999.0,    5.5,  999.0,    5.5,    5.5,    5.5,  999.0,  999.0,    5.5,    5.5,  999.0,    5.5,    5.5,    5.5,    5.5,    5.5,    5.5,  999.0,  999.0,  999.0,  999.0,  999.0,  999.0,  999.0,    5.5,    5.5,    5.5,    5.5,    5.5,    5.5,    5.5,    5.5,    5.5,    5.5,    5.5,    5.5,  999.0,  999.0,    5.5,    5.5,    5.5,  999.0,    5.5,  999.0,  999.0,  999.0,    5.5,    5.5,  999.0,    5.5,    5.5,    5.5,  999.0,    5.5,    5.5,    5.5,  999.0,  999.0,  999.0,    5.5,  999.0,    5.5
2008/10/02 07:10,    2.2,    1.8,  999.0,    1.8,    3.3,    5.5,  999.0,    2.8,    4.2,   -1.4,  999.0,    2.8,   -5.5,  999.0,  999.0,  999.0,  999.0,  999.0,  999.0,  999.0,  999.0,  999.0,  999.0,  999.0,  999.0,  999.0,  999.0,  999.0,  999.0,  999.0,    1.8,  999.0,  999.0,  999.0,  999.0,    5.5,    5.5,    5.5,    2.7,  999.0,  999.0,  999.0,    5.5,    5.5,    5.5,  999.0,    5.5,    5.5,  999.0,  999.0,  999.0,  999.0,    1.8,  999.0,  999.0,  999.0,  999.0,  999.0,  999.0,  999.0,  999.0,  999.0,    5.5,    5.5,    5.5,    5.5,    5.5,  999.0,    2.7,    1.8,   -0.1,    1.0,    1.8,    5.5,    5.5,  999.0,  999.0,  999.0,    5.5,  999.0,    5.5,  999.0,  999.0,  999.0,  999.0,  999.0,  999.0,    5.5,    5.5,  999.0,    5.5,    5.5,  999.0,  999.0,  999.0,  999.0,  999.0,  999.0
2008/10/02 07:20,   -5.5,   -5.5,  999.0,  999.0,  999.0,  999.0,  999.0,  999.0,  999.0,   -5.6,  999.0,  999.0,  999.0,   -5.5,  999.0,  999.0,  999.0,  999.0,  999.0,  999.0,  999.0,  999.0,  999.0,  999.0,  999.0,  999.0,  999.0,  999.0,  999.0,  999.0,  999.0,  999.0,  999.0,  999.0,  999.0,  999.0,   -5.6,  999.0,  999.0,  999.0,  999.0,  999.0,  999.0,  999.0,   -5.6,   -5.6,   -5.6,   -5.6,   -5.6,   -5.6,   -5.6,   -5.6,   -5.6,   -5.7,   -5.6,  999.0,   -5.6,   -5.6,  999.0,   -5.6,  999.0,  999.0,  999.0,   -5.7,   -5.6,   -5.7,   -5.7,  999.0,   -5.6,   -5.6,   -5.6,   -5.6,   -5.6,  999.0,  999.0,  999.0,  999.0,  999.0,  999.0,   -5.6,  999.0,  999.0,  999.0,   -5.6,  999.0,   -5.6,  999.0,  999.0,   -5.6,  999.0,  999.0,  999.0,  999.0,  999.0,  999.0,   -5.6,   -5.6,  999.0
2008/10/02 07:30,    5.5,  999.0,  999.0,  999.0,    2.9,  999.0,  999.0,  999.0,    0.0,   -5.5,  999.0,   -5.5,  999.0,  999.0,  999.0,  999.0,  999.0,  999.0,  999.0,  999.0,  999.0,  999.0,  999.0,  999.0,  999.0,  999.0,  999.0,  999.0,  999.0,  999.0,  999.0,  999.0,  999.0,  999.0,  999.0,  999.0,  999.0,  999.0,  999.0,  999.0,  999.0,  999.0,  999.0,  999.0,  999.0,  999.0,  999.0,  999.0,  999.0,   -5.5,  999.0,  999.0,  999.0,  999.0,  999.0,  999.0,  999.0,  999.0,  999.0,  999.0,  999.0,  999.0,  999.0,  999.0,  999.0,  999.0,  999.0,  999.0,   -5.5,  999.0,  999.0,  999.0,  999.0,  999.0,  999.0,  999.0,  999.0,  999.0,  999.0,  999.0,  999.0,  999.0,  999.0,  999.0,  999.0,  999.0,  999.0,  999.0,  999.0,  999.0,  999.0,  999.0,  999.0,   -5.7,  999.0,  999.0,  999.0,  999.0
2008/10/02 07:40,   -5.5,   -5.5,  999.0,   -5.5,   -5.5,   -5.5,  999.0,   -5.5,   -5.5,   -5.5,  999.0,   -5.5,   -5.5,  999.0,  999.0,  999.0,  999.0,  999.0,  999.0,  999.0,   -5.6,  999.0,  999.0,  999.0,  999.0,  999.0,  999.0,  999.0,  999.0,  999.0,  999.0,   -5.6,   -5.6,  999.0,   -5.5,   -5.5,  999.0,  999.0,  999.0,  999.0,  999.0,  999.0,  999.0,   -5.5,  999.0,   -5.5,   -5.5,   -5.5,  999.0,  999.0,   -5.5,  999.0,  999.0,  999.0,  999.0,  999.0,  999.0,  999.0,  999.0,  999.0,  999.0,  999.0,  999.0,  999.0,  999.0,  999.0,  999.0,   -5.5,   -5.5,  999.0,   -5.4,  999.0,  999.0,  999.0,  999.0,  999.0,  999.0,  999.0,  999.0,  999.0,  999.0,  999.0,  999.0,  999.0,  999.0,  999.0,  999.0,   -5.5,   -5.5,   -5.5,   -5.5,  999.0,   -5.5,  999.0,   -5.5,  999.0,   -5.5,   -5.5
2008/10/02 07:50,   -5.5,   -5.5,  999.0,   -5.5,   -5.5,   -5.5,  999.0,   -5.5,   -5.5,   -5.5,  999.0,   -5.5,   -5.5,  999.0,  999.0,  999.0,  999.0,  999.0,  999.0,  999.0,  999.0,  999.0,  999.0,  999.0,  999.0,  999.0,  999.0,  999.0,  999.0,   -5.5,   -5.5,  999.0,   -5.5,   -5.5,   -5.5,  999.0,  999.0,  999.0,  999.0,   -5.5,  999.0,  999.0,  999.0,  999.0,  999.0,   -5.5,  999.0,   -5.5,   -5.5,   -5.5,   -5.5,  999.0,  999.0,  999.0,  999.0,  999.0,  999.0,  999.0,  999.0,   -5.5,   -5.5,  999.0,   -5.5,  999.0,   -5.5,  999.0,  999.0,   -5.5,   -5.5,   -5.5,  999.0,  999.0,   -5.5,  999.0,  999.0,  999.0,  999.0,  999.0,  999.0,  999.0,  999.0,  999.0,  999.0,  999.0,  999.0,  999.0,   -5.5,  999.0,   -5.5,   -5.5,   -5.5,   -5.5,  999.0,   -5.5,   -5.5,   -5.5,   -5.5,   -5.5
2008/10/02 08:00,   -5.5,   -5.5,  999.0,   -5.5,   -5.5,   -5.5,  999.0,   -5.5,   -5.5,   -5.5,  999.0,  999.0,   -5.5,  999.0,  999.0,  999.0,  999.0,  999.0,  999.0,  999.0,  999.0,  999.0,  999.0,  999.0,  999.0,  999.0,  999.0,   -5.5,   -5.5,   -5.5,   -5.5,   -5.5,  999.0,  999.0,   -5.5,  999.0,  999.0,  999.0,  999.0,  999.0,   -5.5,  999.0,  999.0,  999.0,   -5.5,   -5.5,   -5.5,   -5.5,   -5.5,   -5.5,   -5.5,   -5.5,  999.0,  999.0,  999.0,  999.0,  999.0,  999.0,   -5.5,  999.0,  999.0,   -5.5,   -5.5,   -5.5,   -5.5,  999.0,  999.0,   -5.5,  999.0,  999.0,  999.0,   -5.5,   -5.5,   -5.5,  999.0,  999.0,  999.0,  999.0,  999.0,  999.0,  999.0,   -5.5,  999.0,   -5.5,   -5.5,   -5.5,   -5.5,   -5.5,   -5.5,   -5.5,   -5.5,   -5.5,   -5.5,   -5.5,   -5.5,   -5.5,   -5.5,   -5.5
2008/10/02 08:10,   -5.5,   -5.5,  999.0,   -5.5,   -5.5,   -5.5,  999.0,   -5.5,   -5.5,   -5.5,  999.0,   -5.5,   -5.5,   -5.5,   -5.5,  999.0,  999.0,  999.0,  999.0,  999.0,   -5.5,  999.0,  999.0,   -5.5,   -5.5,  999.0,   -5.5,   -5.5,  999.0,   -5.5,   -5.5,  999.0,   -5.5,  999.0,  999.0,   -5.5,  999.0,  999.0,   -5.5,   -5.5,   -5.5,  999.0,   -5.5,   -5.5,  999.0,   -5.5,   -5.5,   -5.5,   -5.5,   -5.5,  999.0,   -5.5,   -5.5,  999.0,   -5.5,   -5.5,   -5.5,  999.0,   -5.5,  999.0,  999.0,  999.0,  999.0,  999.0,   -5.5,  999.0,   -5.5,  999.0,   -5.5,   -5.5,   -5.5,   -5.5,   -5.5,   -5.5,   -5.5,   -5.5,   -5.5,   -5.5,  999.0,   -5.5,  999.0,   -5.5,  999.0,   -5.5,   -5.5,  999.0,   -5.5,   -5.5,   -5.5,   -5.5,   -5.5,   -5.5,   -5.5,   -5.5,   -5.5,   -5.5,   -5.5,   -5.5
2008/10/02 08:20,   -5.5,   -5.5,  999.0,   -5.5,   -5.5,   -5.5,  999.0,   -5.5,   -5.5,   -5.5,  999.0,   -5.5,   -5.5,   -5.5,   -5.5,   -5.5,   -5.5,   -5.5,   -5.5,   -5.5,   -5.5,   -5.5,   -5.5,   -5.5,   -5.5,   -5.5,   -5.5,   -5.5,   -5.5,  999.0,   -5.5,   -5.5,  999.0,   -5.5,  999.0,   -5.5,   -5.5,  999.0,   -5.5,   -5.5,   -5.5,   -5.5,   -5.5,   -5.5,   -5.5,   -5.5,   -5.5,  999.0,   -5.5,   -5.5,   -5.5,   -5.5,   -5.5,   -5.5,  999.0,  999.0,  999.0,  999.0,  999.0,   -5.5,  999.0,   -5.5,   -5.5,  999.0,   -5.5,  999.0,   -5.5,   -5.5,   -5.5,   -5.5,   -5.5,  999.0,   -5.5,   -5.5,   -5.5,  999.0,   -5.5,   -5.5,   -5.5,   -5.5,   -5.5,  999.0,  999.0,   -5.5,   -5.5,  999.0,  999.0,   -5.5,   -5.5,   -5.5,  999.0,   -5.5,   -5.5,  999.0,   -5.5,   -5.5,  999.0,   -5.5
2008/10/02 08:30,   -5.5,   -5.5,  999.0,   -5.5,   -5.5,   -5.5,  999.0,   -5.5,  999.0,   -5.5,  999.0,   -5.5,  999.0,   -5.5,  999.0,   -5.5,   -5.5,   -5.5,   -5.5,   -5.5,  999.0,  999.0,  999.0,   -5.5,   -5.5,  999.0,   -5.5,   -5.5,   -5.5,   -5.5,   -5.5,   -5.5,  999.0,   -5.5,   -5.5,   -5.5,  999.0,   -5.5,   -5.5,  999.0,  999.0,   -5.5,  999.0,  999.0,   -5.5,   -5.5,   -5.5,  999.0,   -5.5,   -5.5,  999.0,   -5.5,  999.0,  999.0,  999.0,  999.0,  999.0,  999.0,   -5.5,  999.0,   -5.5,   -5.5,   -5.5,  999.0,  999.0,  999.0,   -5.5,  999.0,   -5.5,   -5.5,  999.0,   -5.5,   -5.5,   -5.5,  999.0,  999.0,   -5.5,   -5.5,   -5.5,   -5.5,  999.0,   -5.5,   -5.5,   -5.5,   -5.5,   -5.5,  999.0,   -5.5,   -5.5,   -5.5,  999.0,   -5.5,   -5.5,   -5.5,   -5.5,  999.0,  999.0,   -5.5
2008/10/02 08:40,   -5.5,   -5.5,  999.0,   -5.5,   -5.5,   -5.5,  999.0,   -5.5,   -5.5,   -5.5,  999.0,   -5.5,   -5.5,   -5.5,   -5.5,   -5.5,   -5.5,   -5.5,   -5.5,  999.0,   -5.5,   -5.5,   -5.5,   -5.5,   -5.5,   -5.5,   -5.5,   -5.5,   -5.5,   -5.5,   -5.5,   -5.5,   -5.5,   -5.5,   -5.5,   -5.5,   -5.5,  999.0,  999.0,  999.0,   -5.5,  999.0,   -5.5,   -5.5,   -5.5,   -5.5,  999.0,   -5.5,   -5.5,   -5.5,   -5.5,   -5.5,   -5.5,   -5.5,   -5.5,   -5.5,   -5.5,  999.0,  999.0,   -5.5,  999.0,  999.0,   -5.5,   -5.5,  999.0,   -5.5,  999.0,   -5.5,   -5.5,   -5.5,   -5.5,   -5.5,  999.0,   -5.5,   -5.5,   -5.5,  999.0,   -5.5,   -5.5,   -5.5,   -5.5,   -5.5,   -5.5,   -5.5,   -5.5,   -5.5,   -5.5,   -5.5,   -5.5,   -5.5,   -5.5,   -5.5,   -5.5,   -5.5,   -5.5,  999.0,   -5.5,  999.0
2008/10/02 08:50,   -5.5,   -5.5,  999.0,   -5.5,  999.0,   -5.5,  999.0,   -5.5,   -5.5,   -5.5,  999.0,   -5.5,  999.0,   -5.5,  999.0,   -5.5,   -5.5,   -5.5,   -5.5,   -5.5,   -5.5,  999.0,  999.0,   -5.5,  999.0,   -5.5,   -5.5,  999.0,   -5.5,   -5.5,   -5.5,   -5.5,   -5.5,  999.0,   -5.5,   -5.5,  999.0,  999.0,  999.0,  999.0,   -5.5,  999.0,   -5.5,   -5.5,   -5.5,   -5.5,   -5.5,  999.0,   -5.5,  999.0,   -5.5,   -5.5,  999.0,   -5.5,   -5.5,   -5.5,  999.0,   -5.5,   -5.5,   -5.5,   -5.5,   -5.5,   -5.5,   -5.5,   -5.5,  999.0,   -5.5,   -5.5,   -5.5,   -5.5,   -5.5,  999.0,   -5.5,   -5.5,  999.0,  999.0,  999.0,  999.0,   -5.5,   -5.5,   -5.5,  999.0,  999.0,   -5.5,  999.0,  999.0,   -5.5,  999.0,  999.0,   -5.5,  999.0,   -5.5,   -5.5,   -5.5,   -5.5,   -5.5,   -5.5,   -5.5
2008/10/02 09:00,   -5.5,   -5.5,  999.0,   -5.5,  999.0,   -5.5,  999.0,   -5.5,   -5.5,   -5.5,  999.0,   -5.5,   -5.5,   -5.5,  999.0,   -5.5,   -5.5,   -5.5,   -5.5,   -5.5,  999.0,   -5.5,   -5.5,   -5.5,   -5.5,   -5.5,   -5.5,   -5.5,   -5.5,   -5.5,   -5.5,  999.0,   -5.5,   -5.5,   -5.5,  999.0,   -5.5,  999.0,  999.0,   -5.5,   -5.5,  999.0,  999.0,  999.0,  999.0,   -5.5,  999.0,  999.0,   -5.5,   -5.5,   -5.5,   -5.5,   -5.5,   -5.5,   -5.5,   -5.5,  999.0,   -5.5,  999.0,   -5.5,   -5.5,   -5.5,  999.0,  999.0,   -5.5,   -5.5,   -5.5,   -5.5,   -5.5,   -5.5,   -5.5,   -5.5,  999.0,   -5.5,   -5.5,   -5.5,   -5.5,   -5.5,   -5.5,  999.0,  999.0,   -5.5,  999.0,   -5.5,   -5.5,  999.0,   -5.5,   -5.5,  999.0,   -5.5,   -5.5,   -5.5,   -5.5,   -5.5,   -5.5,  999.0,   -5.5,  999.0
2008/10/02 09:10,   -5.5,   -5.5,  999.0,   -5.5,   -5.5,   -5.5,  999.0,   -5.5,   -5.5,   -5.5,  999.0,   -5.5,   -5.5,   -5.5,   -5.5,   -5.5,   -5.5,   -5.5,   -5.5,   -5.5,  999.0,  999.0,   -5.5,   -5.5,  999.0,   -5.5,  999.0,   -5.5,  999.0,  999.0,  999.0,   -5.5,   -5.5,  999.0,  999.0,  999.0,   -5.5,   -5.5,   -5.5,   -5.5,  999.0,   -5.5,   -5.5,   -5.5,   -5.5,  999.0,   -5.5,  999.0,  999.0,  999.0,   -5.5,  999.0,  999.0,   -5.5,   -5.5,   -5.5,   -5.5,   -5.5,  999.0,   -5.5,  999.0,   -5.5,   -5.5,   -5.5,   -5.5,   -5.5,   -5.5,  999.0,   -5.5,   -5.5,   -5.5,   -5.5,   -5.5,  999.0,   -5.5,   -5.5,   -5.5,  999.0,   -5.5,  999.0,  999.0,   -5.5,   -5.5,   -5.5,   -5.5,   -5.5,   -5.5,   -5.5,   -5.5,   -5.5,  999.0,  999.0,  999.0,  999.0,   -5.5,  999.0,  999.0,   -5.5
2008/10/02 09:20,   -5.5,   -5.5,  999.0,   -5.5,   -5.5,   -5.5,  999.0,   -5.5,   -5.5,   -5.5,  999.0,   -5.5,   -5.5,   -5.5,  999.0,   -5.5,   -5.5,   -5.5,   -5.5,   -5.5,  999.0,   -5.5,  999.0,   -5.5,  999.0,  999.0,   -5.5,  999.0,   -5.5,  999.0,   -5.5,   -5.5,  999.0,  999.0,  999.0,   -5.5,   -5.5,   -5.5,   -5.5,   -5.5,   -5.5,   -5.5,   -5.5,   -5.5,   -5.5,   -5.5,   -5.5,   -5.5,  999.0,   -5.5,   -5.5,  999.0,  999.0,   -5.5,  999.0,   -5.5,  999.0,   -5.5,   -5.5,   -5.5,  999.0,   -5.5,   -5.5,   -5.5,   -5.5,  999.0,   -5.5,   -5.5,   -5.5,   -5.5,   -5.5,   -5.5,   -5.5,   -5.5,   -5.5,   -5.5,  999.0,   -5.5,   -5.5,   -5.5,   -5.5,   -5.5,   -5.5,  999.0,   -5.5,   -5.5,  999.0,   -5.5,  999.0,   -5.5,   -5.5,  999.0,  999.0,   -5.5,   -5.5,   -5.5,   -5.5,   -5.5
2008/10/02 09:30,   -5.5,   -5.5,  999.0,   -5.5,   -5.5,   -5.5,  999.0,   -5.5,  999.0,   -5.5,  999.0,   -5.5,  999.0,   -5.5,  999.0,   -5.5,   -5.5,  999.0,   -5.5,  999.0,   -5.5,   -5.5,   -5.5,  999.0,  999.0,   -5.5,   -5.5,   -5.5,   -5.5,  999.0,   -5.5,  999.0,  999.0,   -5.5,  999.0,  999.0,  999.0,   -5.5,   -5.5,   -5.5,  999.0,   -5.5,   -5.5,  999.0,   -5.5,  999.0,   -5.5,  999.0,   -5.5,   -5.5,   -5.5,  999.0,   -5.5,  999.0,  999.0,   -5.5,   -5.5,   -5.5,   -5.5,   -5.5,   -5.5,   -5.5,   -5.5,  999.0,  999.0,   -5.5,   -5.5,   -5.5,   -5.5,  999.0,  999.0,   -5.5,   -5.5,   -5.5,  999.0,   -5.5,   -5.5,   -5.5,  999.0,   -5.5,  999.0,  999.0,   -5.5,  999.0,   -5.5,   -5.5,   -5.5,  999.0,  999.0,  999.0,  999.0,  999.0,  999.0,  999.0,  999.0,  999.0,  999.0,  999.0
2008/10/02 09:40,   -5.5,   -5.5,  999.0,   -5.5,   -5.5,   -5.5,  999.0,   -5.5,   -5.5,   -5.5,  999.0,   -5.5,  999.0,   -5.5,  999.0,  999.0,   -5.5,   -5.5,  999.0,   -5.5,  999.0,  999.0,  999.0,  999.0,   -5.5,  999.0,   -5.5,   -5.5,   -5.5,   -5.5,   -5.5,   -5.5,   -5.5,   -5.5,  999.0,   -5.5,   -5.5,   -5.5,   -5.5,  999.0,   -5.5,   -5.5,  999.0,  999.0,  999.0,  999.0,  999.0,  999.0,   -5.5,   -5.5,  999.0,   -5.5,  999.0,   -5.5,  999.0,  999.0,   -5.5,  999.0,   -5.5,  999.0,   -5.5,  999.0,   -5.5,   -5.5,   -5.5,   -5.5,   -5.5,   -5.5,  999.0,  999.0,  999.0,   -5.5,   -5.5,   -5.5,   -5.5,   -5.5,  999.0,   -5.5,  999.0,   -5.5,   -5.5,  999.0,   -5.5,   -5.5,   -5.5,   -5.5,   -5.5,  999.0,   -5.5,  999.0,  999.0,  999.0,  999.0,  999.0,  999.0,  999.0,  999.0,  999.0
2008/10/02 09:50,  999.0,   -5.5,  999.0,   -5.5,   -5.5,   -5.5,  999.0,   -5.5,   -5.5,   -5.5,  999.0,   -5.5,   -5.5,   -5.5,   -5.5,   -5.5,  999.0,   -5.5,   -5.5,   -5.5,  999.0,  999.0,  999.0,  999.0,   -5.5,   -5.5,   -5.5,   -5.5,   -5.5,   -5.5,  999.0,  999.0,  999.0,   -5.5,  999.0,   -5.5,   -5.5,   -5.5,   -5.5,  999.0,  999.0,  999.0,  999.0,  999.0,   -5.5,   -5.5,  999.0,   -5.5,  999.0,   -5.5,   -5.5,  999.0,   -5.5,  999.0,   -5.5,   -5.5,  999.0,  999.0,   -5.5,   -5.5,  999.0,  999.0,  999.0,  999.0,  999.0,  999.0,   -5.5,  999.0,  999.0,   -5.5,  999.0,   -5.5,  999.0,   -5.5,   -5.5,   -5.5,   -5.5,  999.0,  999.0,  999.0,   -5.5,   -5.5,   -5.5,   -5.5,   -5.5,   -5.5,   -5.5,   -5.5,   -5.5,   -5.5,  999.0,  999.0,   -5.5,   -5.5,  999.0,  999.0,   -5.5,  999.0
2008/10/02 10:00,   -5.5,   -5.5,  999.0,   -5.5,  999.0,   -5.5,  999.0,   -5.5,   -5.5,   -5.5,  999.0,   -5.5,  999.0,   -5.5,   -5.5,   -5.5,   -5.5,  999.0,  999.0,   -5.5,   -5.5,   -5.5,  999.0,  999.0,  999.0,  999.0,   -5.5,   -5.5,   -5.5,   -5.5,  999.0,   -5.5,  999.0,   -5.5,  999.0,   -5.5,   -5.5,  999.0,   -5.5,   -5.5,  999.0,  999.0,  999.0,  999.0,  999.0,  999.0,  999.0,  999.0,   -5.5,   -5.5,  999.0,  999.0,   -5.5,   -5.5,   -5.5,  999.0,  999.0,   -5.5,   -5.5,   -5.5,   -5.5,  999.0,   -5.5,   -5.5,  999.0,  999.0,   -5.5,  999.0,   -5.5,  999.0,   -5.5,   -5.5,  999.0,   -5.5,   -5.5,   -5.5,   -5.5,   -5.5,   -5.5,   -5.5,   -5.5,  999.0,   -5.5,   -5.5,   -5.5,   -5.5,   -5.5,   -5.5,  999.0,   -5.5,   -5.5,  999.0,   -5.5,  999.0,  999.0,   -5.5,   -5.5,  999.0
2008/10/02 10:10,   -5.5,   -5.5,  999.0,   -5.5,   -5.5,   -5.5,  999.0,   -5.5,   -5.5,   -5.5,  999.0,   -5.5,   -5.5,   -5.5,  999.0,  999.0,  999.0,   -5.5,   -5.5,  999.0,   -5.5,   -5.5,  999.0,  999.0,  999.0,  999.0,  999.0,   -5.5,   -5.5,   -5.5,   -5.5,   -5.5,   -5.5,   -5.5,   -5.5,  999.0,  999.0,   -5.5,  999.0,  999.0,   -5.5,   -5.5,  999.0,   -5.5,  999.0,   -5.5,  999.0,   -5.5,  999.0,   -5.5,   -5.5,  999.0,   -5.5,  999.0,   -5.5,   -5.5,   -5.5,   -5.5,   -5.5,  999.0,   -5.5,   -5.5,   -5.5,  999.0,  999.0,  999.0,   -5.5,  999.0,  999.0,   -5.5,   -5.5,   -5.5,   -5.5,  999.0,   -5.5,  999.0,   -5.5,   -5.5,   -5.5,  999.0,   -5.5,   -5.5,   -5.5,   -5.5,  999.0,   -5.5,   -5.5,   -5.5,   -5.5,  999.0,  999.0,  999.0,  999.0,   -5.5,  999.0,   -5.5,   -5.5,  999.0
2008/10/02 10:20,   -0.0,   -1.8,  999.0,   -5.5,    0.0,  999.0,  999.0,  999.0,  999.0,  999.0,  999.0,    1.8,  999.0,  999.0,  999.0,  999.0,  999.0,  999.0,  999.0,  999.0,  999.0,  999.0,  999.0,  999.0,  999.0,  999.0,  999.0,  999.0,  999.0,  999.0,  999.0,  999.0,  999.0,  999.0,  999.0,  999.0,  999.0,  999.0,  999.0,  999.0,  999.0,  999.0,  999.0,  999.0,  999.0,  999.0,  999.0,  999.0,  999.0,  999.0,  999.0,  999.0,  999.0,  999.0,  999.0,  999.0,  999.0,  999.0,  999.0,  999.0,  999.0,  999.0,  999.0,  999.0,  999.0,  999.0,  999.0,  999.0,  999.0,  999.0,  999.0,  999.0,  999.0,  999.0,  999.0,  999.0,  999.0,  999.0,  999.0,  999.0,  999.0,  999.0,  999.0,  999.0,  999.0,  999.0,  999.0,  999.0,  999.0,  999.0,  999.0,  999.0,  999.0,  999.0,  999.0,  999.0,  999.0,  999.0
2008/10/02 10:30,    5.5,    5.5,  999.0,    5.5,    5.5,    5.5,  999.0,  999.0,    5.5,  999.0,  999.0,    5.5,  999.0,  999.0,  999.0,  999.0,  999.0,  999.0,  999.0,  999.0,  999.0,  999.0,  999.0,  999.0,  999.0,  999.0,  999.0,  999.0,  999.0,  999.0,  999.0,  999.0,  999.0,  999.0,  999.0,  999.0,  999.0,  999.0,  999.0,  999.0,  999.0,  999.0,  999.0,  999.0,  999.0,  999.0,  999.0,  999.0,  999.0,  999.0,  999.0,  999.0,  999.0,  999.0,  999.0,  999.0,  999.0,  999.0,  999.0,  999.0,  999.0,  999.0,  999.0,  999.0,  999.0,  999.0,  999.0,  999.0,  999.0,  999.0,  999.0,  999.0,  999.0,  999.0,  999.0,  999.0,  999.0,  999.0,  999.0,  999.0,  999.0,  999.0,  999.0,  999.0,  999.0,  999.0,  999.0,  999.0,  999.0,  999.0,  999.0,  999.0,  999.0,  999.0,  999.0,  999.0,  999.0,  999.0
2008/10/02 10:40,    5.5,    5.5,  999.0,    5.5,    5.5,    5.5,  999.0,    5.5,    5.5,    5.5,  999.0,    5.5,  999.0,    5.5,  999.0,  999.0,  999.0,  999.0,  999.0,  999.0,  999.0,  999.0,  999.0,  999.0,  999.0,  999.0,  999.0,  999.0,  999.0,  999.0,    5.6,  999.0,  999.0,  999.0,  999.0,  999.0,  999.0,    5.7,    5.7,    5.7,    5.7,    5.7,  999.0,  999.0,  999.0,  999.0,  999.0,  999.0,  999.0,  999.0,  999.0,  999.0,  999.0,  999.0,  999.0,  999.0,  999.0,  999.0,  999.0,  999.0,  999.0,  999.0,  999.0,  999.0,  999.0,    5.8,    5.8,  999.0,    5.8,    5.8,    5.8,    5.8,  999.0,    5.8,  999.0,    5.8,    5.8,    5.8,  999.0,    5.8,    5.8,    5.8,    5.8,    5.8,    5.8,    5.8,  999.0,  999.0,    5.8,  999.0,    5.8,    5.8,  999.0,    5.8,  999.0,  999.0,  999.0,  999.0
2008/10/02 10:50,    5.5,    5.5,  999.0,    5.5,  999.0,    5.5,  999.0,    5.5,    5.5,    5.5,  999.0,    5.5,    5.5,    5.5,  999.0,  999.0,  999.0,  999.0,  999.0,  999.0,  999.0,  999.0,  999.0,  999.0,  999.0,  999.0,  999.0,  999.0,  999.0,  999.0,    5.6,  999.0,  999.0,    5.6,  999.0,  999.0,  999.0,  999.0,  999.0,    5.7,  999.0,  999.0,  999.0,  999.0,  999.0,  999.0,  999.0,  999.0,  999.0,  999.0,  999.0,  999.0,  999.0,  999.0,  999.0,  999.0,  999.0,  999.0,  999.0,  999.0,  999.0,  999.0,  999.0,  999.0,  999.0,  999.0,  999.0,  999.0,    5.8,    5.8,  999.0,  999.0,  999.0,  999.0,    5.8,    5.8,  999.0,    5.8,  999.0,  999.0,    5.8,    5.8,    5.8,    5.8,    5.8,    5.8,    5.8,    5.8,    5.8,    5.8,  999.0,    5.8,  999.0,  999.0,  999.0,  999.0,  999.0,  999.0
2008/10/02 11:00,    5.5,    5.5,  999.0,    5.5,    5.5,    5.5,  999.0,    5.5,    5.5,    5.5,  999.0,  999.0,  999.0,  999.0,  999.0,  999.0,  999.0,  999.0,  999.0,  999.0,  999.0,  999.0,  999.0,  999.0,  999.0,  999.0,  999.0,  999.0,  999.0,  999.0,  999.0,  999.0,  999.0,  999.0,    5.7,  999.0,  999.0,  999.0,    5.7,  999.0,    5.7,    5.7,  999.0,    5.7,  999.0,  999.0,  999.0,  999.0,  999.0,  999.0,  999.0,  999.0,  999.0,  999.0,  999.0,  999.0,  999.0,  999.0,  999.0,  999.0,  999.0,  999.0,  999.0,  999.0,  999.0,  999.0,  999.0,  999.0,  999.0,  999.0,  999.0,  999.0,  999.0,  999.0,  999.0,  999.0,  999.0,  999.0,  999.0,  999.0,  999.0,  999.0,    5.8,    5.8,    5.8,  999.0,    5.8,    5.8,    5.8,    5.8,  999.0,  999.0,    5.7,  999.0,  999.0,  999.0,  999.0,  999.0
2008/10/02 11:10,  999.0,  999.0,  999.0,  999.0,  999.0,  999.0,  999.0,  999.0,  999.0,  999.0,  999.0,  999.0,  999.0,  999.0,  999.0,  999.0,  999.0,  999.0,  999.0,  999.0,  999.0,  999.0,  999.0,  999.0,  999.0,  999.0,  999.0,  999.0,  999.0,  999.0,  999.0,  999.0,  999.0,  999.0,  999.0,  999.0,  999.0,  999.0,  999.0,  999.0,  999.0,  999.0,  999.0,  999.0,  999.0,  999.0,  999.0,  999.0,  999.0,  999.0,  999.0,  999.0,  999.0,  999.0,  999.0,  999.0,  999.0,  999.0,  999.0,  999.0,  999.0,  999.0,  999.0,  999.0,  999.0,  999.0,  999.0,  999.0,  999.0,  999.0,  999.0,  999.0,  999.0,  999.0,  999.0,  999.0,  999.0,  999.0,  999.0,  999.0,  999.0,  999.0,  999.0,  999.0,  999.0,  999.0,  999.0,  999.0,  999.0,  999.0,  999.0,  999.0,  999.0,  999.0,  999.0,  999.0,  999.0,  999.0
2008/10/02 11:20,   -5.5,   -5.5,  999.0,   -5.5,   -5.5,   -5.5,  999.0,   -5.5,   -5.5,   -5.5,  999.0,   -5.5,   -5.5,   -5.5,   -5.5,   -5.5,   -5.5,   -5.5,  999.0,   -5.5,  999.0,  999.0,   -5.5,   -5.5,  999.0,  999.0,  999.0,  999.0,  999.0,   -5.5,  999.0,   -5.5,  999.0,   -5.5,  999.0,  999.0,  999.0,   -5.5,   -5.5,   -5.5,   -5.5,   -5.5,  999.0,   -5.5,  999.0,   -5.5,   -5.5,  999.0,  999.0,  999.0,   -5.5,   -5.5,  999.0,   -5.5,   -5.5,   -5.5,   -5.5,  999.0,   -5.5,  999.0,   -5.5,  999.0,   -5.5,   -5.5,   -5.5,  999.0,   -5.5,  999.0,   -5.5,   -5.5,   -5.5,   -5.5,   -5.5,   -5.5,  999.0,  999.0,  999.0,   -5.5,   -5.5,   -5.5,  999.0,  999.0,  999.0,  999.0,   -5.5,  999.0,  999.0,  999.0,   -5.5,   -5.5,  999.0,  999.0,  999.0,  999.0,  999.0,  999.0,  999.0,   -5.5
2008/10/02 11:30,   -5.5,   -5.5,  999.0,   -5.5,   -5.5,   -5.5,  999.0,   -5.5,   -5.5,   -5.5,  999.0,   -5.5,   -5.5,   -5.5,  999.0,   -5.5,   -5.5,   -5.5,   -5.5,   -5.5,   -5.5,  999.0,  999.0,  999.0,  999.0,  999.0,  999.0,  999.0,   -5.5,   -5.5,  999.0,   -5.5,   -5.5,   -5.5,  999.0,  999.0,   -5.5,   -5.5,   -5.5,   -5.5,  999.0,   -5.5,   -5.5,   -5.5,  999.0,   -5.5,   -5.5,  999.0,   -5.5,   -5.5,  999.0,   -5.5,   -5.5,   -5.5,   -5.5,   -5.5,   -5.5,   -5.5,   -5.5,   -5.5,   -5.5,  999.0,  999.0,   -5.5,   -5.5,  999.0,  999.0,  999.0,   -5.5,   -5.5,   -5.5,   -5.5,   -5.5,   -5.5,   -5.5,   -5.5,   -5.5,   -5.5,  999.0,   -5.5,   -5.5,   -5.5,   -5.5,   -5.5,  999.0,  999.0,   -5.5,   -5.5,  999.0,   -5.5,   -5.5,  999.0,   -5.5,  999.0,  999.0,   -5.5,  999.0,   -5.5
2008/10/02 11:40,   -5.5,   -5.5,   -5.5,   -5.5,   -5.5,   -5.5,  999.0,   -5.5,   -5.5,   -5.5,  999.0,   -5.5,   -5.5,   -5.5,  999.0,  999.0,   -5.5,   -5.5,   -5.5,   -5.5,   -5.5,  999.0,  999.0,  999.0,  999.0,   -5.5,  999.0,  999.0,  999.0,   -5.5,  999.0,   -5.5,   -5.5,   -5.5,  999.0,  999.0,   -5.5,   -5.5,   -5.5,   -5.5,  999.0,   -5.5,   -5.5,  999.0,  999.0,   -5.5,  999.0,  999.0,  999.0,  999.0,  999.0,   -5.5,   -5.5,   -5.5,   -5.5,   -5.5,   -5.5,   -5.5,   -5.5,   -5.5,  999.0,   -5.5,   -5.5,  999.0,   -5.5,   -5.5,  999.0,   -5.5,   -5.5,   -5.5,   -5.5,   -5.5,   -5.5,  999.0,   -5.5,  999.0,  999.0,   -5.5,  999.0,   -5.5,  999.0,  999.0,  999.0,  999.0,  999.0,  999.0,  999.0,  999.0,   -5.5,  999.0,  999.0,   -5.5,  999.0,   -5.5,  999.0,   -5.5,  999.0,   -5.5
2008/10/02 11:50,   -5.5,   -5.5,  999.0,   -5.5,   -5.5,   -5.5,  999.0,   -5.5,   -5.5,   -5.5,   -5.5,   -5.5,   -5.5,   -5.5,  999.0,  999.0,   -5.5,  999.0,   -5.5,   -5.5,   -5.5,  999.0,   -5.5,  999.0,  999.0,   -5.5,  999.0,  999.0,  999.0,  999.0,   -5.5,   -5.5,   -5.5,  999.0,  999.0,   -5.5,   -5.5,   -5.5,  999.0,   -5.5,   -5.5,   -5.5,   -5.5,   -5.5,  999.0,  999.0,  999.0,  999.0,  999.0,  999.0,  999.0,  999.0,  999.0,   -5.5,  999.0,   -5.5,   -5.5,   -5.5,   -5.5,   -5.5,   -5.5,  999.0,  999.0,   -5.5,  999.0,   -5.5,   -5.5,   -5.5,   -5.5,   -5.5,   -5.5,   -5.5,  999.0,   -5.5,   -5.5,   -5.5,   -5.5,   -5.5,   -5.5,   -5.5,  999.0,   -5.5,  999.0,   -5.5,   -5.5,   -5.5,   -5.5,   -5.5,  999.0,   -5.5,   -5.5,   -5.5,  999.0,   -5.5,   -5.5,   -5.5,  999.0,  999.0
2008/10/02 12:00,   -5.5,   -5.5,  999.0,   -5.5,   -5.5,   -5.5,  999.0,   -5.5,   -5.5,   -5.5,  999.0,   -5.5,   -5.5,   -5.5,   -5.5,  999.0,  999.0,   -5.5,  999.0,   -5.5,   -5.5,   -5.5,   -5.5,   -5.5,  999.0,   -5.5,  999.0,  999.0,   -5.5,  999.0,   -5.5,  999.0,  999.0,  999.0,  999.0,  999.0,  999.0,  999.0,  999.0,   -5.5,   -5.5,   -5.5,   -5.5,  999.0,  999.0,   -5.5,  999.0,  999.0,  999.0,  999.0,  999.0,   -5.5,   -5.5,   -5.5,   -5.5,   -5.5,   -5.5,  999.0,  999.0,  999.0,   -5.5,  999.0,   -5.5,  999.0,   -5.5,   -5.5,   -5.5,   -5.5,  999.0,  999.0,   -5.5,   -5.5,   -5.5,   -5.5,  999.0,  999.0,  999.0,   -5.5,  999.0,   -5.5,   -5.5,  999.0,   -5.5,   -5.5,   -5.5,  999.0,   -5.5,  999.0,   -5.5,   -5.5,   -5.5,  999.0,   -5.5,  999.0,   -5.5,   -5.5,   -5.5,   -5.5
2008/10/02 12:10,   -5.5,   -5.5,  999.0,   -5.5,   -5.5,   -5.5,  999.0,   -5.5,   -5.5,   -5.5,  999.0,   -5.5,   -5.5,   -5.5,  999.0,   -5.5,   -5.5,  999.0,  999.0,   -5.5,   -5.5,   -5.5,   -5.5,   -5.5,  999.0,  999.0,  999.0,   -5.5,  999.0,   -5.5,   -5.5,   -5.5,   -5.5,   -5.5,   -5.5,  999.0,   -5.5,   -5.5,   -5.5,   -5.5,   -5.5,  999.0,  999.0,   -5.5,   -5.5,   -5.5,   -5.5,  999.0,  999.0,  999.0,  999.0,   -5.5,   -5.5,  999.0,   -5.5,   -5.5,   -5.5,   -5.5,   -5.5,  999.0,  999.0,  999.0,  999.0,   -5.5,   -5.5,   -5.5,  999.0,   -5.5,   -5.5,   -5.5,   -5.5,   -5.5,   -5.5,  999.0,   -5.5,  999.0,   -5.5,  999.0,   -5.5,   -5.5,   -5.5,  999.0,   -5.5,   -5.5,   -5.5,   -5.5,   -5.5,   -5.5,  999.0,   -5.5,   -5.5,   -5.5,  999.0,  999.0,  999.0,  999.0,   -5.5,   -5.5
2008/10/02 12:20,   -5.5,   -5.5,  999.0,   -5.5,   -5.5,   -5.5,  999.0,   -5.5,   -5.5,   -5.5,  999.0,   -5.5,   -5.5,   -5.5,   -5.5,  999.0,  999.0,  999.0,   -5.5,  999.0,   -5.5,   -5.5,  999.0,   -5.5,  999.0,  999.0,  999.0,   -5.5,   -5.5,  999.0,  999.0,  999.0,   -5.5,  999.0,   -5.5,  999.0,   -5.5,   -5.5,   -5.5,   -5.5,  999.0,  999.0,   -5.5,  999.0,   -5.5,  999.0,   -5.5,   -5.5,   -5.5,   -5.5,   -5.5,   -5.5,   -5.5,  999.0,   -5.5,  999.0,   -5.5,   -5.5,  999.0,   -5.5,   -5.5,  999.0,  999.0,  999.0,  999.0,   -5.5,   -5.5,   -5.5,   -5.5,   -5.5,   -5.5,   -5.5,   -5.5,   -5.5,   -5.5,   -5.5,  999.0,   -5.5,  999.0,   -5.5,   -5.5,  999.0,   -5.5,  999.0,  999.0,  999.0,   -5.5,  999.0,   -5.5,  999.0,   -5.5,   -5.5,  999.0,  999.0,  999.0,   -5.5,   -5.5,   -5.5
2008/10/02 12:30,   -5.5,   -5.5,  999.0,   -5.5,   -5.5,   -5.5,  999.0,   -5.5,   -5.5,   -5.5,  999.0,   -5.5,   -5.5,   -5.5,   -5.5,   -5.5,  999.0,  999.0,   -5.5,  999.0,  999.0,   -5.5,  999.0,  999.0,  999.0,  999.0,   -5.5,   -5.5,  999.0,  999.0,   -5.5,  999.0,  999.0,  999.0,   -5.5,  999.0,   -5.5,  999.0,  999.0,   -5.5,  999.0,  999.0,   -5.5,  999.0,   -5.5,  999.0,  999.0,   -5.5,  999.0,  999.0,   -5.5,   -5.5,   -5.5,  999.0,   -5.5,   -5.5,   -5.5,   -5.5,   -5.5,  999.0,   -5.5,   -5.5,  999.0,   -5.5,   -5.5,   -5.5,   -5.5,   -5.5,   -5.5,   -5.5,   -5.5,   -5.5,  999.0,   -5.5,  999.0,  999.0,   -5.5,   -5.5,  999.0,  999.0,   -5.5,   -5.5,   -5.5,  999.0,   -5.5,  999.0,  999.0,  999.0,   -5.5,   -5.5,   -5.5,   -5.5,   -5.5,  999.0,  999.0,   -5.5,   -5.5,   -5.5
2008/10/02 12:40,   -5.5,   -5.5,  999.0,   -5.5,  999.0,   -5.5,   -5.5,   -5.5,   -5.5,   -5.5,  999.0,   -5.5,   -5.5,   -5.5,  999.0,  999.0,  999.0,   -5.5,  999.0,   -5.5,  999.0,  999.0,  999.0,  999.0,  999.0,   -5.5,  999.0,   -5.5,  999.0,   -5.5,  999.0,  999.0,   -5.5,  999.0,  999.0,  999.0,   -5.5,   -5.5,   -5.5,   -5.5,   -5.5,  999.0,   -5.5,  999.0,   -5.5,   -5.5,  999.0,   -5.5,   -5.5,  999.0,   -5.5,   -5.5,   -5.5,  999.0,   -5.5,   -5.5,   -5.5,   -5.5,   -5.5,   -5.5,   -5.5,   -5.5,   -5.5,  999.0,   -5.5,   -5.5,  999.0,   -5.5,   -5.5,   -5.5,   -5.5,   -5.5,   -5.5,   -5.5,  999.0,  999.0,   -5.5,   -5.5,  999.0,   -5.5,   -5.5,   -5.5,  999.0,   -5.5,   -5.5,  999.0,   -5.5,   -5.5,   -5.5,   -5.5,  999.0,   -5.5,  999.0,   -5.5,  999.0,  999.0,  999.0,  999.0
2008/10/02 12:50,   -5.5,   -5.5,  999.0,   -5.5,   -5.5,   -5.5,  999.0,   -5.5,   -5.5,   -5.5,  999.0,   -5.5,   -5.5,   -5.5,  999.0,   -5.5,   -5.5,   -5.5,   -5.5,  999.0,   -5.5,   -5.5,  999.0,  999.0,  999.0,  999.0,  999.0,  999.0,   -5.5,   -5.5,   -5.5,   -5.5,   -5.5,  999.0,   -5.5,  999.0,   -5.5,  999.0,  999.0,   -5.5,   -5.5,   -5.5,  999.0,  999.0,  999.0,  999.0,   -5.5,  999.0,  999.0,   -5.5,   -5.5,   -5.5,   -5.5,   -5.5,   -5.5,   -5.5,   -5.5,   -5.5,   -5.5,   -5.5,   -5.5,   -5.5,  999.0,  999.0,   -5.5,   -5.5,   -5.5,   -5.5,   -5.5,   -5.5,   -5.5,   -5.5,   -5.5,   -5.5,   -5.5,   -5.5,  999.0,   -5.5,   -5.5,   -5.5,   -5.5,  999.0,   -5.5,   -5.5,   -5.5,   -5.5,   -5.5,   -5.5,   -5.5,   -5.5,   -5.5,  999.0,   -5.5,   -5.5,   -5.5,   -5.5,  999.0,   -5.5
2008/10/02 13:00,   -5.5,   -5.5,  999.0,   -5.5,   -5.5,   -5.5,   -5.5,   -5.5,   -5.5,   -5.5,  999.0,   -5.5,   -5.5,   -5.5,   -5.5,  999.0,   -5.5,   -5.5,   -5.5,   -5.5,   -5.5,  999.0,   -5.5,  999.0,  999.0,  999.0,   -5.5,  999.0,   -5.5,   -5.5,   -5.5,   -5.5,  999.0,   -5.5,   -5.5,  999.0,   -5.5,   -5.5,   -5.5,   -5.5,  999.0,   -5.5,   -5.5,   -5.5,  999.0,   -5.5,   -5.5,  999.0,   -5.5,   -5.5,  999.0,   -5.5,   -5.5,   -5.5,   -5.5,   -5.5,   -5.5,   -5.5,   -5.5,   -5.5,   -5.5,   -5.5,   -5.5,   -5.5,   -5.5,   -5.5,   -5.5,   -5.5,   -5.5,   -5.5,   -5.5,   -5.5,   -5.5,   -5.5,   -5.5,   -5.5,   -5.5,  999.0,   -5.5,   -5.5,   -5.5,   -5.5,   -5.5,   -5.5,   -5.5,   -5.5,  999.0,  999.0,   -5.5,   -5.5,   -5.5,  999.0,   -5.5,   -5.5,   -5.5,  999.0,   -5.5,   -5.5
2008/10/02 13:10,   -5.5,   -5.5,  999.0,   -5.5,   -5.5,   -5.5,  999.0,   -5.5,   -5.5,   -5.5,  999.0,   -5.5,   -5.5,   -5.5,  999.0,  999.0,  999.0,  999.0,   -5.5,   -5.5,   -5.5,   -5.5,  999.0,  999.0,   -5.5,   -5.5,   -5.5,  999.0,   -5.5,   -5.5,  999.0,  999.0,   -5.5,   -5.5,   -5.5,   -5.5,   -5.5,   -5.5,   -5.5,   -5.5,   -5.5,   -5.5,   -5.5,   -5.5,   -5.5,   -5.5,   -5.5,  999.0,   -5.5,  999.0,  999.0,   -5.5,   -5.5,  999.0,  999.0,   -5.5,   -5.5,   -5.5,   -5.5,   -5.5,  999.0,  999.0,   -5.5,   -5.5,  999.0,  999.0,   -5.5,   -5.5,   -5.5,   -5.5,   -5.5,  999.0,   -5.5,  999.0,   -5.5,  999.0,  999.0,  999.0,  999.0,  999.0,  999.0,  999.0,  999.0,  999.0,   -5.5,   -5.5,   -5.5,   -5.5,   -5.5,   -5.5,  999.0,   -5.5,   -5.5,   -5.5,   -5.5,  999.0,   -5.5,   -5.5
2008/10/02 13:20,  999.0,   -5.5,  999.0,   -5.5,   -5.5,   -5.5,  999.0,   -5.5,  999.0,   -5.5,   -5.5,   -5.5,   -5.5,   -5.5,   -5.5,   -5.5,   -5.5,  999.0,   -5.5,  999.0,   -5.5,  999.0,  999.0,   -5.5,  999.0,   -5.5,  999.0,   -5.5,  999.0,   -5.5,   -5.5,  999.0,   -5.5,   -5.5,   -5.5,   -5.5,   -5.5,  999.0,  999.0,  999.0,   -5.5,   -5.5,   -5.5,  999.0,   -5.5,   -5.5,  999.0,   -5.5,   -5.5,  999.0,   -5.5,   -5.5,   -5.5,  999.0,   -5.5,  999.0,  999.0,   -5.5,  999.0,  999.0,  999.0,   -5.5,  999.0,  999.0,  999.0,  999.0,   -5.5,  999.0,  999.0,   -5.5,  999.0,  999.0,   -5.5,  999.0,  999.0,  999.0,  999.0,   -5.5,  999.0,   -5.5,   -5.5,  999.0,  999.0,  999.0,  999.0,   -5.5,   -5.5,   -5.5,   -5.5,   -5.5,   -5.5,   -5.5,  999.0,   -5.5,  999.0,   -5.5,   -5.5,  999.0
2008/10/02 13:30,    5.5,    5.5,  999.0,    5.5,    5.5,  999.0,  999.0,  999.0,  999.0,    5.5,  999.0,  999.0,  999.0,  999.0,  999.0,  999.0,  999.0,  999.0,  999.0,  999.0,  999.0,  999.0,  999.0,  999.0,  999.0,  999.0,  999.0,  999.0,  999.0,  999.0,  999.0,  999.0,  999.0,  999.0,  999.0,  999.0,  999.0,  999.0,  999.0,  999.0,  999.0,  999.0,  999.0,  999.0,  999.0,  999.0,  999.0,  999.0,  999.0,  999.0,  999.0,  999.0,  999.0,  999.0,  999.0,  999.0,  999.0,    5.5,  999.0,  999.0,  999.0,  999.0,  999.0,  999.0,  999.0,  999.0,  999.0,  999.0,  999.0,  999.0,  999.0,  999.0,  999.0,  999.0,  999.0,  999.0,  999.0,  999.0,  999.0,  999.0,  999.0,  999.0,  999.0,  999.0,  999.0,  999.0,  999.0,  999.0,  999.0,  999.0,  999.0,  999.0,  999.0,  999.0,  999.0,  999.0,  999.0,  999.0
2008/10/02 13:40,    5.5,    5.5,  999.0,    5.5,    5.5,    5.5,  999.0,    5.5,    5.5,    5.5,  999.0,    5.5,    5.5,    5.5,  999.0,  999.0,  999.0,  999.0,  999.0,  999.0,  999.0,  999.0,  999.0,  999.0,  999.0,  999.0,  999.0,  999.0,  999.0,  999.0,    5.5,  999.0,  999.0,  999.0,  999.0,  999.0,  999.0,  999.0,  999.0,  999.0,  999.0,    5.5,  999.0,    5.5,  999.0,  999.0,  999.0,    5.5,  999.0,    5.5,  999.0,  999.0,  999.0,    5.5,    5.5,    5.5,  999.0,    5.5,    5.5,    5.5,    5.5,  999.0,    5.6,    5.6,    5.6,    5.6,    5.6,  999.0,  999.0,  999.0,  999.0,  999.0,  999.0,  999.0,    5.6,    5.5,  999.0,    5.6,    5.5,    5.5,  999.0,  999.0,    5.6,    5.6,    5.6,    5.6,    5.6,    5.6,    5.5,  999.0,  999.0,  999.0,    5.5,  999.0,  999.0,  999.0,    5.6,  999.0
2008/10/02 13:50,    5.5,    5.5,  999.0,    5.5,    5.5,    5.5,  999.0,    5.5,    5.5,    5.5,  999.0,    5.5,    5.5,    5.5,  999.0,  999.0,  999.0,  999.0,  999.0,  999.0,    5.5,  999.0,    5.6,  999.0,    5.5,    5.5,    5.5,    5.5,    5.5,    5.6,    5.6,  999.0,    5.5,    5.5,    5.5,    5.5,    5.6,    5.6,    5.6,    5.6,    5.6,    5.6,    5.6,  999.0,    5.5,  999.0,    5.6,  999.0,  999.0,  999.0,    5.6,    5.6,    5.6,    5.6,  999.0,    5.6,    5.6,    5.6,    5.6,    5.6,    5.5,    5.5,    5.6,    5.6,  999.0,    5.5,    5.5,    5.5,    5.5,  999.0,    5.5,  999.0,    5.5,    5.5,    5.5,    5.5,  999.0,    5.5,    5.5,    5.5,    5.5,    5.5,    5.5,    5.5,    5.5,    5.5,    5.5,    5.5,    5.6,    5.5,    5.5,    5.5,    5.5,    5.5,    5.5,    5.5,    5.5,    5.5
2008/10/02 14:00,    5.5,    5.5,  999.0,    5.5,    5.5,    5.5,  999.0,  999.0,    5.5,    5.5,  999.0,    5.5,    5.5,  999.0,  999.0,  999.0,  999.0,    5.6,  999.0,    5.6,    5.6,  999.0,  999.0,    5.5,  999.0,    5.5,    5.5,    5.5,    5.5,  999.0,    5.5,  999.0,    5.5,    5.5,    5.5,  999.0,    5.5,    5.5,  999.0,    5.5,    5.5,    5.5,    5.5,  999.0,  999.0,    5.6,    5.6,  999.0,    5.6,    5.6,    5.6,  999.0,    5.6,    5.5,  999.0,    5.6,    5.6,    5.6,    5.6,    5.5,    5.5,    5.6,  999.0,    5.5,    5.5,  999.0,  999.0,    5.5,    5.5,    5.5,    5.5,    5.5,    5.5,    5.5,  999.0,    5.5,    5.5,    5.5,    5.5,    5.5,  999.0,    5.5,    5.5,  999.0,    5.5,    5.5,    5.5,    5.5,    5.5,    5.5,    5.5,    5.5,    5.5,    5.5,  999.0,    5.5,    5.5,    5.5
2008/10/02 14:10,    5.5,    5.5,  999.0,    5.5,    5.5,    5.5,  999.0,    5.5,    5.5,    5.5,  999.0,    5.5,    5.5,  999.0,  999.0,  999.0,  999.0,  999.0,  999.0,    5.6,    5.6,    5.5,  999.0,  999.0,  999.0,  999.0,  999.0,    5.5,    5.5,  999.0,    5.5,    5.5,    5.5,    5.5,    5.5,    5.5,    5.5,    5.5,    5.5,    5.6,    5.6,  999.0,    5.5,    5.5,    5.5,  999.0,    5.6,    5.5,  999.0,  999.0,    5.5,  999.0,    5.5,  999.0,    5.6,    5.5,    5.6,    5.5,    5.6,    5.6,  999.0,    5.5,    5.5,    5.6,  999.0,    5.5,    5.5,    5.5,  999.0,    5.6,  999.0,    5.5,    5.5,  999.0,    5.5,    5.5,  999.0,    5.5,    5.5,  999.0,    5.5,  999.0,  999.0,    5.5,    5.5,    5.5,    5.5,    5.5,    5.5,    5.5,    5.5,    5.5,    5.5,    5.5,    5.5,    5.5,    5.5,    5.5
2008/10/02 14:20,    5.5,    5.5,  999.0,    5.5,    5.5,    5.5,  999.0,    5.5,    5.5,    5.5,  999.0,    5.5,    5.5,    5.5,  999.0,  999.0,  999.0,  999.0,  999.0,  999.0,  999.0,  999.0,  999.0,  999.0,  999.0,  999.0,    5.6,  999.0,    5.6,  999.0,    5.6,    5.5,  999.0,  999.0,    5.6,  999.0,  999.0,    5.5,    5.6,    5.5,  999.0,  999.0,    5.5,    5.5,    5.5,  999.0,    5.5,    5.5,  999.0,  999.0,  999.0,  999.0,    5.5,  999.0,  999.0,  999.0,  999.0,    5.5,    5.5,    5.5,    5.5,  999.0,    5.5,  999.0,  999.0,  999.0,    5.5,    5.5,    5.5,  999.0,    5.5,    5.5,    5.5,    5.5,    5.5,    5.5,  999.0,    5.5,    5.5,    5.5,    5.5,    5.5,    5.5,    5.5,    5.5,    5.5,    5.5,    5.6,    5.5,    5.5,    5.5,    5.5,    5.5,    5.5,    5.5,    5.5,    5.5,    5.5
2008/10/02 14:30,  999.0,    5.5,  999.0,    5.5,  999.0,  999.0,  999.0,    5.5,    5.5,    5.5,  999.0,  999.0,  999.0,    5.5,  999.0,  999.0,  999.0,  999.0,  999.0,  999.0,  999.0,  999.0,  999.0,    5.5,    5.6,  999.0,  999.0,    5.6,    5.6,  999.0,    5.6,  999.0,  999.0,  999.0,  999.0,  999.0,    5.5,  999.0,    5.6,  999.0,  999.0,  999.0,  999.0,  999.0,    5.5,  999.0,    5.5,  999.0,  999.0,    5.5,  999.0,  999.0,  999.0,  999.0,  999.0,    5.5,  999.0,  999.0,    5.5,  999.0,  999.0,  999.0,  999.0,  999.0,  999.0,  999.0,  999.0,    5.5,  999.0,    5.5,    5.5,    5.5,  999.0,  999.0,  999.0,    5.6,    5.5,  999.0,  999.0,  999.0,    5.5,    5.5,    5.5,    5.5,    5.5,  999.0,  999.0,  999.0,  999.0,  999.0,  999.0,  999.0,  999.0,  999.0,  999.0,  999.0,  999.0,  999.0
2008/10/02 14:40,    5.5,    5.5,  999.0,    5.5,  999.0,  999.0,  999.0,    5.5,    5.5,    5.5,  999.0,  999.0,  999.0,    5.5,  999.0,  999.0,  999.0,  999.0,    5.6,  999.0,  999.0,  999.0,  999.0,  999.0,  999.0,  999.0,    5.5,  999.0,  999.0,  999.0,  999.0,    5.6,  999.0,  999.0,  999.0,  999.0,  999.0,  999.0,  999.0,    5.6,  999.0,  999.0,  999.0,  999.0,  999.0,  999.0,  999.0,    5.5,    5.5,  999.0,  999.0,  999.0,  999.0,    5.5,    5.5,  999.0,  999.0,    5.5,    5.5,    5.5,    5.5,  999.0,    5.6,  999.0,    5.5,    5.6,  999.0,    5.5,    5.6,    5.5,    5.6,  999.0,    5.5,  999.0,  999.0,    5.5,    5.6,  999.0,    5.5,    5.5,  999.0,    5.5,  999.0,  999.0,  999.0,  999.0,    5.5,    5.5,  999.0,    5.5,    5.5,  999.0,  999.0,  999.0,  999.0,    5.5,    5.5,    5.5
2008/10/02 14:50,    2.8,    1.4,  999.0,   -1.9,    5.5,   -1.8,  999.0,    0.2,    0.0,    5.5,  999.0,    5.5,  999.0,  999.0,  999.0,  999.0,  999.0,  999.0,  999.0,  999.0,  999.0,    5.6,  999.0,  999.0,  999.0,  999.0,  999.0,  999.0,  999.0,  999.0,  999.0,  999.0,  999.0,  999.0,  999.0,  999.0,  999.0,  999.0,  999.0,  999.0,  999.0,  999.0,  999.0,  999.0,  999.0,  999.0,  999.0,  999.0,  999.0,  999.0,  999.0,  999.0,  999.0,  999.0,  999.0,  999.0,  999.0,  999.0,  999.0,  999.0,  999.0,  999.0,  999.0,  999.0,  999.0,  999.0,  999.0,    5.6,  999.0,    5.5,  999.0,  999.0,  999.0,  999.0,  999.0,  999.0,  999.0,  999.0,  999.0,    5.5,    5.5,  999.0,  999.0,    5.5,    5.5,  999.0,    5.5,  999.0,  999.0,  999.0,  999.0,  999.0,  999.0,  999.0,    5.5,  999.0,  999.0,  999.0
2008/10/02 15:00,   -5.5,  999.0,  999.0,   -5.5,  999.0,   -5.5,  999.0,   -5.5,   -4.4,   -5.5,  999.0,  999.0,  999.0,  999.0,  999.0,  999.0,  999.0,  999.0,  999.0,  999.0,  999.0,  999.0,  999.0,  999.0,  999.0,  999.0,  999.0,  999.0,  999.0,  999.0,  999.0,  999.0,  999.0,  999.0,  999.0,  999.0,  999.0,  999.0,  999.0,  999.0,  999.0,  999.0,  999.0,  999.0,  999.0,   -5.4,  999.0,  999.0,  999.0,  999.0,  999.0,  999.0,  999.0,  999.0,  999.0,  999.0,  999.0,  999.0,  999.0,  999.0,  999.0,  999.0,  999.0,  999.0,  999.0,  999.0,  999.0,  999.0,  999.0,  999.0,  999.0,  999.0,  999.0,  999.0,  999.0,  999.0,  999.0,  999.0,  999.0,  999.0,  999.0,  999.0,   -5.4,  999.0,  999.0,  999.0,  999.0,   -5.4,  999.0,  999.0,  999.0,  999.0,  999.0,  999.0,  999.0,  999.0,  999.0,  999.0
2008/10/02 15:10,   -5.5,   -5.5,  999.0,   -5.5,  999.0,  999.0,  999.0,   -5.5,   -5.5,   -5.5,  999.0,   -5.5,  999.0,   -5.5,  999.0,  999.0,  999.0,  999.0,  999.0,  999.0,  999.0,  999.0,  999.0,  999.0,  999.0,  999.0,  999.0,  999.0,  999.0,  999.0,  999.0,  999.0,  999.0,  999.0,  999.0,  999.0,  999.0,  999.0,  999.0,  999.0,  999.0,  999.0,  999.0,  999.0,   -5.4,   -5.4,  999.0,   -5.4,  999.0,   -5.4,   -5.4,  999.0,  999.0,   -5.4,  999.0,  999.0,   -5.4,  999.0,  999.0,  999.0,  999.0,  999.0,  999.0,  999.0,  999.0,  999.0,  999.0,  999.0,  999.0,  999.0,  999.0,  999.0,  999.0,  999.0,  999.0,  999.0,  999.0,  999.0,  999.0,  999.0,  999.0,  999.0,  999.0,  999.0,  999.0,  999.0,  999.0,  999.0,  999.0,   -5.4,  999.0,  999.0,  999.0,  999.0,  999.0,  999.0,  999.0,  999.0
2008/10/02 15:20,   -5.5,   -4.4,  999.0,   -5.5,   -5.5,   -5.5,  999.0,   -4.4,   -5.5,   -4.4,  999.0,   -5.5,   -5.5,   -5.5,  999.0,  999.0,  999.0,  999.0,  999.0,  999.0,  999.0,  999.0,  999.0,   -5.5,   -5.5,  999.0,   -5.5,  999.0,  999.0,  999.0,  999.0,  999.0,  999.0,  999.0,  999.0,  999.0,  999.0,  999.0,  999.0,  999.0,  999.0,  999.0,  999.0,  999.0,  999.0,  999.0,  999.0,  999.0,  999.0,  999.0,   -5.4,  999.0,  999.0,  999.0,  999.0,  999.0,  999.0,  999.0,  999.0,  999.0,  999.0,  999.0,  999.0,  999.0,  999.0,  999.0,  999.0,  999.0,  999.0,  999.0,  999.0,  999.0,  999.0,  999.0,   -5.4,  999.0,  999.0,  999.0,  999.0,  999.0,  999.0,   -5.4,  999.0,  999.0,  999.0,  999.0,  999.0,  999.0,  999.0,  999.0,  999.0,  999.0,  999.0,  999.0,  999.0,  999.0,  999.0,  999.0
2008/10/02 15:30,   -4.1,   -5.5,  999.0,  999.0,  999.0,  999.0,  999.0,   -2.8,    0.0,   -1.8,  999.0,   -5.5,   -5.5,  999.0,  999.0,  999.0,  999.0,  999.0,  999.0,  999.0,  999.0,  999.0,   -5.5,  999.0,  999.0,  999.0,  999.0,  999.0,  999.0,  999.0,  999.0,  999.0,  999.0,  999.0,  999.0,  999.0,  999.0,  999.0,  999.0,  999.0,  999.0,  999.0,  999.0,  999.0,  999.0,  999.0,  999.0,  999.0,  999.0,  999.0,  999.0,  999.0,  999.0,  999.0,  999.0,  999.0,  999.0,  999.0,  999.0,  999.0,  999.0,  999.0,  999.0,  999.0,  999.0,  999.0,  999.0,  999.0,  999.0,  999.0,  999.0,  999.0,  999.0,  999.0,  999.0,  999.0,  999.0,  999.0,   -5.4,  999.0,  999.0,  999.0,  999.0,  999.0,  999.0,  999.0,  999.0,  999.0,  999.0,   -5.4,  999.0,  999.0,  999.0,  999.0,   -5.4,  999.0,   -5.4,  999.0
2008/10/02 15:40,   -1.4,   -1.1,  999.0,    1.8,    1.8,    0.0,  999.0,    5.5,   -3.7,   -1.1,   -0.0,  999.0,  999.0,  999.0,  999.0,  999.0,  999.0,  999.0,  999.0,  999.0,  999.0,  999.0,  999.0,  999.0,  999.0,  999.0,  999.0,  999.0,  999.0,  999.0,  999.0,  999.0,  999.0,  999.0,  999.0,  999.0,  999.0,  999.0,  999.0,  999.0,  999.0,  999.0,  999.0,  999.0,  999.0,  999.0,  999.0,  999.0,  999.0,  999.0,  999.0,  999.0,  999.0,  999.0,  999.0,  999.0,  999.0,  999.0,  999.0,  999.0,  999.0,  999.0,  999.0,  999.0,  999.0,  999.0,  999.0,  999.0,  999.0,  999.0,  999.0,  999.0,  999.0,  999.0,  999.0,  999.0,  999.0,  999.0,  999.0,  999.0,  999.0,  999.0,  999.0,  999.0,  999.0,  999.0,  999.0,  999.0,  999.0,  999.0,  999.0,  999.0,  999.0,  999.0,  999.0,  999.0,  999.0,  999.0
2008/10/02 15:50,    3.7,    3.3,  999.0,  999.0,    5.5,    5.5,  999.0,    1.8,    2.8,   -1.8,  999.0,  999.0,  999.0,  999.0,  999.0,  999.0,  999.0,  999.0,  999.0,  999.0,  999.0,  999.0,  999.0,  999.0,  999.0,  999.0,  999.0,  999.0,  999.0,  999.0,  999.0,  999.0,  999.0,  999.0,  999.0,  999.0,  999.0,  999.0,  999.0,  999.0,  999.0,  999.0,  999.0,  999.0,  999.0,  999.0,  999.0,  999.0,  999.0,  999.0,  999.0,  999.0,  999.0,  999.0,  999.0,  999.0,  999.0,  999.0,  999.0,  999.0,  999.0,  999.0,  999.0,  999.0,  999.0,  999.0,  999.0,  999.0,  999.0,  999.0,  999.0,  999.0,  999.0,  999.0,  999.0,  999.0,  999.0,  999.0,  999.0,  999.0,  999.0,  999.0,  999.0,  999.0,  999.0,  999.0,  999.0,  999.0,  999.0,  999.0,  999.0,  999.0,  999.0,  999.0,  999.0,  999.0,  999.0,  999.0
2008/10/02 16:00,  999.0,    5.5,  999.0,    5.5,  999.0,  999.0,  999.0,    5.5,    5.5,    5.5,  999.0,    5.5,  999.0,  999.0,  999.0,  999.0,  999.0,  999.0,  999.0,  999.0,  999.0,  999.0,    5.4,  999.0,  999.0,  999.0,  999.0,  999.0,  999.0,  999.0,    5.3,  999.0,  999.0,  999.0,    5.3,  999.0,  999.0,  999.0,  999.0,  999.0,  999.0,  999.0,  999.0,  999.0,  999.0,  999.0,  999.0,  999.0,  999.0,  999.0,  999.0,  999.0,  999.0,    5.3,  999.0,  999.0,  999.0,    5.3,  999.0,  999.0,  999.0,  999.0,  999.0,  999.0,  999.0,  999.0,  999.0,  999.0,  999.0,  999.0,  999.0,  999.0,  999.0,  999.0,  999.0,  999.0,  999.0,  999.0,  999.0,  999.0,  999.0,  999.0,  999.0,  999.0,  999.0,  999.0,    5.4,  999.0,  999.0,  999.0,  999.0,  999.0,  999.0,  999.0,  999.0,  999.0,  999.0,  999.0
2008/10/02 16:10,  999.0,    5.5,  999.0,    5.5,    5.5,  999.0,  999.0,  999.0,    5.5,  999.0,  999.0,    5.5,  999.0,    5.5,  999.0,  999.0,  999.0,  999.0,  999.0,  999.0,  999.0,  999.0,  999.0,  999.0,    5.6,  999.0,    5.6,  999.0,  999.0,  999.0,    5.6,    5.6,    5.6,    5.6,    5.6,    5.6,  999.0,  999.0,  999.0,  999.0,  999.0,  999.0,  999.0,  999.0,  999.0,  999.0,  999.0,  999.0,  999.0,  999.0,  999.0,  999.0,  999.0,  999.0,  999.0,  999.0,  999.0,  999.0,  999.0,  999.0,  999.0,  999.0,  999.0,  999.0,  999.0,  999.0,  999.0,  999.0,  999.0,  999.0,  999.0,  999.0,  999.0,  999.0,    5.6,    5.6,  999.0,    5.6,    5.6,  999.0,  999.0,  999.0,  999.0,  999.0,  999.0,  999.0,  999.0,  999.0,  999.0,  999.0,  999.0,  999.0,  999.0,  999.0,  999.0,  999.0,  999.0,  999.0
2008/10/02 16:20,  999.0,    5.5,  999.0,    5.5,  999.0,    5.5,  999.0,    5.5,  999.0,    5.5,  999.0,    5.5,    5.5,    5.5,  999.0,    5.5,    5.5,    5.5,  999.0,    5.5,  999.0,  999.0,  999.0,    5.5,    5.6,  999.0,  999.0,    5.6,  999.0,    5.6,  999.0,    5.6,    5.6,    5.6,    5.6,    5.6,  999.0,  999.0,  999.0,  999.0,  999.0,  999.0,  999.0,  999.0,  999.0,  999.0,  999.0,  999.0,  999.0,  999.0,  999.0,  999.0,  999.0,  999.0,  999.0,  999.0,  999.0,  999.0,  999.0,  999.0,  999.0,  999.0,  999.0,  999.0,  999.0,  999.0,  999.0,  999.0,  999.0,  999.0,    5.6,    5.6,  999.0,    5.6,  999.0,    5.6,    5.6,  999.0,  999.0,    5.6,  999.0,  999.0,  999.0,  999.0,    5.6,  999.0,  999.0,  999.0,  999.0,  999.0,    5.6,    5.6,  999.0,    5.6,    5.6,  999.0,    5.6,  999.0
2008/10/02 16:30,  999.0,    5.5,  999.0,    5.5,  999.0,    5.5,  999.0,    5.5,  999.0,    5.5,  999.0,    5.5,  999.0,    5.5,  999.0,  999.0,  999.0,  999.0,    5.5,  999.0,  999.0,    5.5,  999.0,  999.0,    5.5,    5.5,  999.0,    5.5,    5.5,    5.5,    5.5,    5.5,    5.6,  999.0,  999.0,  999.0,  999.0,  999.0,  999.0,  999.0,  999.0,  999.0,  999.0,  999.0,  999.0,  999.0,  999.0,  999.0,  999.0,  999.0,  999.0,  999.0,  999.0,  999.0,  999.0,  999.0,  999.0,  999.0,  999.0,  999.0,  999.0,  999.0,  999.0,  999.0,  999.0,  999.0,  999.0,  999.0,  999.0,  999.0,  999.0,  999.0,  999.0,  999.0,  999.0,  999.0,  999.0,  999.0,  999.0,  999.0,  999.0,  999.0,  999.0,  999.0,    5.6,  999.0,  999.0,  999.0,  999.0,  999.0,  999.0,  999.0,  999.0,    5.6,    5.6,  999.0,  999.0,  999.0
2008/10/02 16:40,  999.0,    5.5,  999.0,    5.5,  999.0,    5.5,  999.0,    5.5,  999.0,    5.5,  999.0,    5.5,  999.0,    5.5,  999.0,  999.0,    5.5,    5.5,    5.5,  999.0,    5.5,    5.5,    5.5,  999.0,  999.0,    5.5,  999.0,  999.0,  999.0,  999.0,    5.5,    5.5,  999.0,  999.0,  999.0,  999.0,  999.0,    5.5,  999.0,  999.0,    5.5,    5.5,    5.5,  999.0,    5.5,  999.0,  999.0,    5.5,  999.0,  999.0,    5.5,  999.0,  999.0,    5.5,    5.5,    5.5,    5.5,  999.0,  999.0,  999.0,  999.0,  999.0,  999.0,    5.5,  999.0,  999.0,  999.0,  999.0,  999.0,  999.0,  999.0,  999.0,  999.0,  999.0,  999.0,  999.0,  999.0,  999.0,  999.0,  999.0,  999.0,  999.0,  999.0,  999.0,  999.0,  999.0,  999.0,  999.0,  999.0,  999.0,  999.0,  999.0,  999.0,  999.0,  999.0,  999.0,  999.0,  999.0
2008/10/02 16:50,    5.5,    5.5,  999.0,    5.5,    5.5,    5.5,  999.0,    5.5,  999.0,    5.5,  999.0,  999.0,  999.0,    5.5,  999.0,  999.0,  999.0,  999.0,  999.0,  999.0,    5.5,    5.5,    5.5,    5.5,    5.5,    5.5,    5.5,    5.5,  999.0,    5.5,  999.0,    5.5,  999.0,  999.0,    5.5,    5.5,  999.0,    5.5,    5.5,    5.5,  999.0,  999.0,    5.5,    5.5,  999.0,    5.5,    5.5,    5.5,    5.5,    5.5,  999.0,    5.5,    5.5,  999.0,    5.5,    5.5,    5.5,    5.5,    5.5,    5.5,    5.5,    5.5,    5.5,  999.0,    5.5,  999.0,    5.5,  999.0,  999.0,  999.0,  999.0,  999.0,  999.0,  999.0,  999.0,    5.5,    5.5,  999.0,    5.5,    5.5,    5.5,    5.5,    5.5,    5.5,  999.0,    5.5,  999.0,    5.5,    5.5,    5.5,    5.5,    5.5,  999.0,    5.5,    5.5,    5.5,    5.5,    5.5
2008/10/02 17:00,    5.5,    5.5,  999.0,    5.5,  999.0,    5.5,  999.0,    5.5,  999.0,    5.5,  999.0,    5.5,  999.0,    5.5,  999.0,  999.0,  999.0,  999.0,  999.0,  999.0,    5.5,    5.5,    5.5,  999.0,    5.5,    5.5,    5.5,    5.5,    5.5,    5.5,    5.5,  999.0,  999.0,    5.5,    5.5,    5.5,    5.5,  999.0,    5.5,    5.5,    5.5,    5.5,  999.0,  999.0,    5.5,    5.5,    5.5,  999.0,    5.5,    5.5,    5.5,    5.5,    5.5,  999.0,    5.5,    5.5,    5.5,    5.5,    5.5,  999.0,  999.0,    5.5,    5.5,    5.5,  999.0,  999.0,    5.5,  999.0,    5.5,  999.0,  999.0,  999.0,  999.0,  999.0,  999.0,  999.0,  999.0,  999.0,  999.0,  999.0,  999.0,    5.5,    5.5,    5.5,  999.0,    5.5,  999.0,    5.5,    5.5,    5.5,  999.0,    5.5,    5.5,  999.0,  999.0,  999.0,  999.0,    5.5
2008/10/02 17:10,    5.5,    5.5,  999.0,    5.5,  999.0,    5.5,  999.0,    5.5,  999.0,    5.5,  999.0,    5.5,  999.0,    5.5,  999.0,  999.0,  999.0,  999.0,    5.5,    5.5,    5.5,    5.5,  999.0,    5.5,  999.0,    5.5,    5.5,    5.5,    5.5,  999.0,    5.5,    5.5,  999.0,    5.5,    5.5,    5.5,    5.5,    5.5,    5.5,    5.5,  999.0,    5.5,  999.0,  999.0,  999.0,  999.0,    5.5,  999.0,  999.0,    5.5,  999.0,    5.5,    5.5,  999.0,  999.0,  999.0,    5.5,  999.0,    5.5,    5.5,  999.0,    5.5,    5.5,  999.0,    5.5,    5.5,    5.5,    5.5,    5.5,  999.0,  999.0,  999.0,    5.5,    5.5,  999.0,  999.0,  999.0,  999.0,  999.0,  999.0,  999.0,    5.5,  999.0,    5.5,  999.0,    5.5,    5.5,    5.5,    5.5,    5.5,    5.5,  999.0,  999.0,  999.0,  999.0,  999.0,    5.5,    5.5
2008/10/02 17:20,    5.5,    5.5,  999.0,    5.5,    5.5,    5.5,  999.0,    5.5,  999.0,    5.5,  999.0,    5.5,    5.5,    5.5,  999.0,  999.0,  999.0,    5.5,    5.5,    5.5,    5.5,    5.5,    5.5,  999.0,    5.5,    5.5,  999.0,  999.0,  999.0,    5.5,    5.5,    5.5,    5.5,    5.5,    5.5,    5.5,  999.0,    5.5,    5.5,    5.5,    5.5,    5.5,  999.0,    5.5,  999.0,  999.0,  999.0,    5.5,    5.5,  999.0,    5.5,  999.0,    5.5,    5.5,    5.5,  999.0,    5.5,    5.5,    5.5,    5.5,  999.0,    5.5,    5.5,  999.0,    5.5,    5.5,  999.0,    5.5,    5.5,  999.0,  999.0,  999.0,    5.5,    5.5,  999.0,  999.0,    5.5,  999.0,  999.0,  999.0,    5.5,    5.5,    5.5,    5.5,    5.5,    5.5,    5.5,    5.5,    5.5,    5.5,    5.5,    5.5,    5.5,    5.5,    5.5,  999.0,    5.5,    5.5
2008/10/02 17:30,    5.5,    5.5,  999.0,    5.5,    5.5,    5.5,  999.0,    5.5,    5.5,    5.5,  999.0,    5.5,    5.5,    5.5,    5.5,  999.0,  999.0,    5.5,    5.5,    5.5,    5.5,    5.5,    5.5,    5.5,    5.5,    5.5,  999.0,    5.5,    5.5,    5.5,    5.5,    5.5,    5.5,    5.5,    5.5,    5.5,    5.5,    5.5,  999.0,  999.0,  999.0,  999.0,  999.0,    5.5,  999.0,  999.0,  999.0,    5.5,  999.0,  999.0,  999.0,    5.5,  999.0,    5.5,    5.5,    5.5,    5.5,  999.0,    5.5,  999.0,  999.0,    5.5,    5.5,  999.0,    5.5,    5.5,    5.5,  999.0,    5.5,    5.5,  999.0,  999.0,  999.0,  999.0,  999.0,    5.5,  999.0,    5.5,    5.5,    5.5,    5.5,    5.5,    5.5,    5.5,    5.5,  999.0,    5.5,    5.5,  999.0,    5.5,    5.5,  999.0,    5.5,    5.5,  999.0,  999.0,    5.5,  999.0
2008/10/02 17:40,  999.0,    5.5,  999.0,    5.5,    5.5,    5.5,  999.0,    5.5,    5.5,    5.5,  999.0,    5.5,  999.0,  999.0,  999.0,  999.0,  999.0,  999.0,    5.5,  999.0,    5.5,    5.5,    5.5,    5.5,  999.0,    5.5,    5.5,    5.5,  999.0,    5.5,    5.5,    5.5,  999.0,    5.5,    5.5,    5.5,    5.5,    5.5,  999.0,    5.5,    5.5,  999.0,    5.5,  999.0,    5.5,  999.0,  999.0,    5.5,  999.0,  999.0,  999.0,    5.5,    5.5,    5.5,    5.5,    5.5,    5.5,  999.0,  999.0,    5.5,    5.5,  999.0,  999.0,    5.5,    5.5,  999.0,    5.5,    5.5,    5.5,    5.5,  999.0,  999.0,    5.5,  999.0,  999.0,  999.0,  999.0,  999.0,  999.0,    5.5,  999.0,  999.0,    5.5,    5.5,    5.5,  999.0,  999.0,    5.5,    5.5,  999.0,    5.5,    5.5,    5.5,    5.5,  999.0,    5.5,    5.5,    5.5
2008/10/02 17:50,    5.5,    5.5,  999.0,    5.5,    5.5,    5.5,  999.0,    5.5,    5.5,    5.5,  999.0,    5.5,    5.5,    5.5,  999.0,  999.0,  999.0,    5.5,    5.5,    5.5,    5.5,    5.5,    5.5,    5.5,    5.5,    5.5,  999.0,    5.5,    5.5,    5.5,  999.0,    5.5,    5.5,    5.5,    5.5,  999.0,    5.5,    5.5,    5.5,  999.0,    5.5,    5.5,  999.0,  999.0,    5.5,  999.0,    5.5,  999.0,    5.5,    5.5,  999.0,    5.5,    5.5,    5.5,  999.0,  999.0,  999.0,    5.5,    5.5,    5.5,  999.0,    5.5,  999.0,    5.5,    5.5,    5.5,    5.5,  999.0,  999.0,    5.5,  999.0,    5.5,  999.0,    5.5,    5.5,    5.5,  999.0,  999.0,  999.0,  999.0,  999.0,  999.0,    5.5,    5.5,    5.5,    5.5,    5.5,  999.0,  999.0,    5.5,    5.5,  999.0,  999.0,    5.5,    5.5,  999.0,    5.5,  999.0
2008/10/02 18:00,    5.5,    5.5,  999.0,    5.5,    5.5,    5.5,  999.0,    5.5,    5.5,    5.5,  999.0,    5.5,    5.5,    5.5,  999.0,  999.0,  999.0,    5.5,    5.5,    5.5,    5.5,    5.5,    5.5,  999.0,    5.5,    5.5,  999.0,    5.5,    5.5,    5.5,    5.5,    5.5,    5.5,    5.5,    5.5,    5.5,    5.5,    5.5,    5.5,    5.5,    5.5,    5.5,    5.5,    5.5,  999.0,    5.5,    5.5,    5.5,  999.0,    5.5,    5.5,    5.5,  999.0,    5.5,  999.0,  999.0,  999.0,    5.5,    5.5,    5.5,  999.0,    5.5,    5.5,    5.5,    5.5,    5.5,    5.5,    5.5,  999.0,    5.5,    5.5,    5.5,    5.5,  999.0,  999.0,    5.5,  999.0,  999.0,  999.0,  999.0,    5.5,    5.5,    5.5,    5.5,    5.5,    5.5,    5.5,    5.5,  999.0,  999.0,  999.0,    5.5,    5.5,    5.5,    5.5,    5.5,    5.5,  999.0
2008/10/02 18:10,    5.5,    5.5,  999.0,    5.5,  999.0,    5.5,  999.0,    5.5,    5.5,    5.5,  999.0,    5.5,    5.5,    5.5,  999.0,  999.0,    5.5,    5.5,    5.5,    5.5,    5.5,    5.5,    5.5,    5.5,    5.5,    5.5,  999.0,    5.5,    5.5,  999.0,    5.5,    5.5,    5.5,    5.5,  999.0,    5.5,    5.5,    5.5,    5.5,  999.0,    5.5,    5.5,  999.0,  999.0,    5.5,  999.0,  999.0,  999.0,  999.0,  999.0,  999.0,    5.5,  999.0,    5.5,  999.0,    5.5,  999.0,    5.5,    5.5,    5.5,  999.0,  999.0,    5.5,    5.5,    5.5,    5.5,  999.0,    5.5,    5.5,    5.5,  999.0,    5.5,  999.0,  999.0,  999.0,    5.5,  999.0,  999.0,  999.0,  999.0,  999.0,    5.5,    5.5,    5.5,    5.5,    5.5,    5.5,  999.0,    5.5,    5.5,  999.0,    5.5,  999.0,    5.5,    5.5,    5.5,    5.5,  999.0
2008/10/02 18:20,    5.5,    5.5,  999.0,    5.5,    5.5,    5.5,  999.0,    5.5,    5.5,    5.5,  999.0,    5.5,    5.5,  999.0,    5.5,  999.0,    5.5,  999.0,    5.5,    5.5,    5.5,    5.5,    5.5,    5.5,  999.0,    5.5,    5.5,    5.5,    5.5,    5.5,    5.5,    5.5,    5.5,    5.5,    5.5,    5.5,  999.0,    5.5,    5.5,    5.5,    5.5,  999.0,    5.5,  999.0,    5.5,    5.5,    5.5,  999.0,  999.0,  999.0,  999.0,    5.5,    5.5,    5.5,  999.0,  999.0,    5.5,    5.5,    5.5,  999.0,  999.0,    5.5,    5.5,  999.0,    5.5,    5.5,    5.5,    5.5,    5.5,  999.0,  999.0,    5.5,  999.0,  999.0,  999.0,    5.5,  999.0,    5.5,    5.5,  999.0,    5.5,  999.0,  999.0,  999.0,    5.5,  999.0,    5.5,    5.5,    5.5,  999.0,  999.0,  999.0,  999.0,    5.5,  999.0,    5.5,    5.5,    5.5
2008/10/02 18:30,    5.5,    5.5,  999.0,    5.5,    5.5,    5.5,  999.0,    5.5,    5.5,    5.5,  999.0,    5.5,    5.5,  999.0,  999.0,  999.0,    5.5,    5.5,    5.5,    5.5,    5.5,    5.5,    5.5,  999.0,    5.5,    5.5,    5.5,    5.5,  999.0,    5.5,  999.0,    5.5,    5.5,    5.5,    5.5,  999.0,  999.0,  999.0,  999.0,    5.5,  999.0,  999.0,    5.5,  999.0,  999.0,  999.0,  999.0,  999.0,    5.5,  999.0,    5.5,  999.0,  999.0,    5.5,    5.5,  999.0,    5.5,  999.0,  999.0,  999.0,  999.0,  999.0,    5.5,  999.0,    5.5,    5.5,    5.5,  999.0,  999.0,  999.0,  999.0,  999.0,    5.5,    5.5,  999.0,  999.0,  999.0,    5.5,    5.5,  999.0,  999.0,    5.5,  999.0,  999.0,  999.0,  999.0,  999.0,  999.0,  999.0,  999.0,  999.0,  999.0,    5.5,    5.5,  999.0,    5.5,    5.5,  999.0
2008/10/02 18:40,    5.5,    5.5,  999.0,    5.5,  999.0,    5.5,  999.0,    5.5,    5.5,    5.5,  999.0,    5.5,  999.0,    5.5,  999.0,  999.0,    5.5,    5.5,    5.5,  999.0,    5.5,    5.5,    5.5,  999.0,    5.5,    5.5,    5.5,    5.5,    5.5,  999.0,  999.0,  999.0,    5.5,    5.5,    5.5,    5.5,    5.5,  999.0,  999.0,  999.0,  999.0,    5.5,    5.5,    5.5,  999.0,  999.0,  999.0,  999.0,    5.5,  999.0,  999.0,  999.0,    5.5,    5.5,    5.5,  999.0,  999.0,  999.0,  999.0,  999.0,  999.0,    5.5,  999.0,    5.5,  999.0,  999.0,  999.0,  999.0,  999.0,  999.0,  999.0,  999.0,  999.0,  999.0,  999.0,  999.0,  999.0,  999.0,    5.5,    5.5,    5.5,  999.0,    5.5,  999.0,    5.5,  999.0,  999.0,  999.0,  999.0,  999.0,  999.0,  999.0,  999.0,    5.5,    5.5,  999.0,  999.0,  999.0
2008/10/02 18:50,  999.0,  999.0,  999.0,  999.0,  999.0,  999.0,  999.0,  999.0,  999.0,  999.0,  999.0,  999.0,  999.0,  999.0,  999.0,  999.0,  999.0,  999.0,  999.0,  999.0,  999.0,  999.0,  999.0,  999.0,  999.0,  999.0,  999.0,  999.0,  999.0,  999.0,  999.0,  999.0,  999.0,  999.0,  999.0,  999.0,  999.0,  999.0,  999.0,  999.0,  999.0,  999.0,  999.0,  999.0,  999.0,  999.0,  999.0,  999.0,  999.0,  999.0,  999.0,  999.0,  999.0,  999.0,  999.0,  999.0,  999.0,  999.0,  999.0,  999.0,  999.0,  999.0,  999.0,  999.0,  999.0,  999.0,  999.0,  999.0,  999.0,  999.0,  999.0,  999.0,  999.0,  999.0,  999.0,  999.0,  999.0,  999.0,  999.0,  999.0,  999.0,  999.0,  999.0,  999.0,  999.0,  999.0,  999.0,  999.0,  999.0,  999.0,  999.0,  999.0,  999.0,  999.0,  999.0,  999.0,  999.0,  999.0
2008/10/02 19:00,    5.5,    5.5,  999.0,    5.5,    5.5,    5.5,  999.0,    5.5,    5.5,    5.5,  999.0,    5.5,    5.5,    5.5,  999.0,    5.5,    5.5,    5.5,    5.5,    5.5,    5.5,    5.5,    5.5,    5.5,    5.5,    5.5,    5.5,    5.5,    5.5,    5.5,  999.0,    5.5,    5.5,  999.0,    5.5,    5.5,    5.5,    5.5,  999.0,  999.0,    5.5,  999.0,    5.5,    5.5,    5.5,    5.5,    5.5,    5.5,  999.0,  999.0,    5.5,    5.5,  999.0,    5.5,  999.0,    5.5,    5.5,    5.5,    5.5,    5.5,  999.0,    5.5,  999.0,    5.5,    5.5,    5.5,    5.5,  999.0,  999.0,    5.5,    5.5,  999.0,    5.5,  999.0,  999.0,    5.5,  999.0,  999.0,    5.5,  999.0,  999.0,    5.5,    5.5,    5.5,    5.5,  999.0,  999.0,  999.0,  999.0,    5.5,    5.5,  999.0,  999.0,    5.5,  999.0,    5.5,    5.5,    5.5
